CW6902 Weather Reports


Display with metric or nautical units.
time (UTC)temp
F
wind
direction
speed
MPH
gust
MPH
rain 1hr
in
rain 24hr
in
rain mn
in
humidity
%
barometer
mb
20260903015001 87 123 1.0 5.0 0.00 0.00 0.00 58 1012.3
20260903014859 87 123 4.0 5.0 0.00 0.00 0.00 59 1012.3
20260903014801 87 124 0.0 5.0 0.00 0.00 0.00 60 1012.3
20260903014700 87 129 0.0 5.0 0.00 0.00 0.00 60 1012.3
20260903014458 87 125 2.0 5.0 0.00 0.00 0.00 61 1012.2
20260903014400 87 125 0.0 5.0 0.00 0.00 0.00 61 1012.2
20260903014259 87 125 0.0 5.0 0.00 0.00 0.00 62 1012.2
20260903014200 87 125 4.0 5.0 0.00 0.00 0.00 62 1012.1
20260903014100 87 123 1.0 5.0 0.00 0.00 0.00 62 1012.1
20260903013959 87 123 0.0 5.0 0.00 0.00 0.00 62 1012.2
20260903013858 87 123 1.0 5.0 0.00 0.00 0.00 63 1012.1
20260903013759 87 123 3.0 5.0 0.00 0.00 0.00 63 1012.2
20260903013659 87 123 0.0 5.0 0.00 0.00 0.00 63 1012.2
20260903013600 87 123 0.0 5.0 0.00 0.00 0.00 63 1012.2
20260903013359 87 124 0.0 3.0 0.00 0.00 0.00 63 1012.2
20260903013300 87 123 0.0 3.0 0.00 0.00 0.00 63 1012.1
20260903013057 87 123 0.0 5.0 0.00 0.00 0.00 64 1012.1
20260903013001 87 123 0.0 5.0 0.00 0.00 0.00 64 1012.1
20260903012858 87 123 2.0 5.0 0.00 0.00 0.00 64 1012.1
20260903012800 87 123 0.0 5.0 0.00 0.00 0.00 64 1012.1
20260903012659 87 123 0.0 5.0 0.00 0.00 0.00 64 1012.1
20260903012559 87 123 2.0 8.0 0.00 0.00 0.00 64 1012.1
20260903012500 87 123 0.0 8.0 0.00 0.00 0.00 64 1012.0
20260903012159 87 114 0.0 8.0 0.00 0.00 0.00 64 1012.0
20260903012059 87 114 0.0 8.0 0.00 0.00 0.00 64 1011.9
20260903012002 87 114 0.0 8.0 0.00 0.00 0.00 64 1012.0
20260903011859 87 114 2.0 8.0 0.00 0.00 0.00 64 1012.0
20260903011800 87 159 0.0 8.0 0.00 0.00 0.00 64 1011.9
20260903011659 87 157 2.0 6.0 0.00 0.00 0.00 64 1012.0
20260903011600 88 154 1.0 6.0 0.00 0.00 0.00 64 1011.9
20260903011500 88 156 0.0 6.0 0.00 0.00 0.00 64 1011.9
20260903011400 88 156 2.0 6.0 0.00 0.00 0.00 64 1012.0
20260903011300 88 180 1.0 6.0 0.00 0.00 0.00 64 1011.9
20260903011200 88 102 1.0 6.0 0.00 0.00 0.00 64 1012.0
20260903011059 88 177 1.0 8.0 0.00 0.00 0.00 64 1011.9
20260903011001 88 98 2.0 10.0 0.00 0.00 0.00 64 1011.9
20260903010859 88 104 0.0 10.0 0.00 0.00 0.00 64 1011.9
20260903010800 88 130 2.0 10.0 0.00 0.00 0.00 64 1011.9
20260903010659 88 133 0.0 10.0 0.00 0.00 0.00 64 1011.9
20260903010600 88 123 5.0 10.0 0.00 0.00 0.00 64 1011.8
20260903010400 88 189 4.0 10.0 0.00 0.00 0.00 64 1011.8
20260903010259 88 136 5.0 10.0 0.00 0.00 0.00 64 1011.8
20260903010200 88 119 4.0 10.0 0.00 0.00 0.00 64 1011.8
20260903010059 88 13 1.0 5.0 0.00 0.00 0.00 64 1011.8
20260903010001 88 8 2.0 5.0 0.00 0.00 0.00 64 1011.8
20260903005858 88 94 3.0 5.0 0.00 0.00 0.00 64 1011.7
20260903005759 88 94 3.0 5.0 0.00 0.00 0.00 64 1011.7
20260903005459 89 116 1.0 5.0 0.00 0.00 0.00 64 1011.7
20260903005358 89 116 1.0 6.0 0.00 0.00 0.00 63 1011.7
20260903005258 89 116 0.0 6.0 0.00 0.00 0.00 63 1011.7
20260903005059 89 116 0.0 6.0 0.00 0.00 0.00 63 1011.7
20260903004857 89 115 0.0 6.0 0.00 0.00 0.00 62 1011.8
20260903004759 89 115 0.0 6.0 0.00 0.00 0.00 62 1011.8
20260903004658 89 115 0.0 6.0 0.00 0.00 0.00 62 1011.8
20260903004559 89 115 0.0 6.0 0.00 0.00 0.00 62 1011.8
20260903004458 89 129 1.0 6.0 0.00 0.00 0.00 62 1011.8
20260903004358 89 125 1.0 6.0 0.00 0.00 0.00 61 1011.8
20260903004259 89 125 0.0 6.0 0.00 0.00 0.00 61 1011.8
20260903004058 89 125 1.0 6.0 0.00 0.00 0.00 61 1011.7
20260903004000 89 102 3.0 5.0 0.00 0.00 0.00 61 1011.8
20260903003859 89 101 2.0 5.0 0.00 0.00 0.00 61 1011.7
20260903003759 89 101 0.0 6.0 0.00 0.00 0.00 60 1011.7
20260903003657 89 101 3.0 6.0 0.00 0.00 0.00 60 1011.7
20260903003557 89 121 3.0 6.0 0.00 0.00 0.00 60 1011.7
20260903003459 89 123 4.0 6.0 0.00 0.00 0.00 60 1011.6
20260903003400 89 156 2.0 6.0 0.00 0.00 0.00 60 1011.6
20260903003158 89 160 1.0 6.0 0.00 0.00 0.00 59 1011.6
20260903003058 89 166 3.0 6.0 0.00 0.00 0.00 59 1011.6
20260903003000 89 176 1.0 6.0 0.00 0.00 0.00 59 1011.6
20260903002858 89 121 2.0 6.0 0.00 0.00 0.00 59 1011.7
20260903002557 90 137 1.0 6.0 0.00 0.00 0.00 59 1011.6
20260903002459 90 144 0.0 6.0 0.00 0.00 0.00 59 1011.7
20260903002357 90 117 1.0 6.0 0.00 0.00 0.00 59 1011.6
20260903002257 90 113 2.0 6.0 0.00 0.00 0.00 60 1011.5
20260903002000 90 94 0.0 6.0 0.00 0.00 0.00 60 1011.4
20260903001858 90 94 1.0 6.0 0.00 0.00 0.00 60 1011.4
20260903001758 90 123 3.0 6.0 0.00 0.00 0.00 60 1011.4
20260903001658 90 123 0.0 6.0 0.00 0.00 0.00 60 1011.3
20260903001559 90 123 0.0 6.0 0.00 0.00 0.00 60 1011.2
20260903001457 90 118 0.0 6.0 0.00 0.00 0.00 60 1011.2
20260903001400 90 118 1.0 6.0 0.00 0.00 0.00 60 1011.2
20260903001258 90 117 1.0 5.0 0.00 0.00 0.00 60 1011.1
20260903001059 90 117 0.0 5.0 0.00 0.00 0.00 59 1011.1
20260903001000 90 117 0.0 5.0 0.00 0.00 0.00 59 1011.0
20260903000859 90 126 2.0 6.0 0.00 0.00 0.00 59 1011.0
20260903000759 90 146 1.0 6.0 0.00 0.00 0.00 59 1011.0
20260903000659 90 145 2.0 6.0 0.00 0.00 0.00 59 1011.0
20260903000459 91 176 1.0 6.0 0.00 0.00 0.00 59 1011.0
20260903000359 91 142 0.0 6.0 0.00 0.00 0.00 59 1011.0
20260903000300 91 142 0.0 6.0 0.00 0.00 0.00 59 1011.0
20260903000157 91 144 2.0 6.0 0.00 0.00 0.00 59 1011.0
20260903000057 91 75 4.0 6.0 0.00 0.00 0.00 59 1011.0
20260903000006 91 113 0.0 6.0 0.00 0.00 0.00 59 1011.0
20260902235859 91 113 0.0 6.0 0.00 0.00 0.00 59 1011.0
20260902235700 91 113 2.0 6.0 0.00 0.00 0.00 59 1010.9
20260902235600 91 132 3.0 5.0 0.00 0.00 0.00 59 1010.9
20260902235500 91 171 2.0 5.0 0.00 0.00 0.00 59 1010.9
20260902235259 91 185 2.0 5.0 0.00 0.00 0.00 59 1010.9
20260902235200 91 145 1.0 5.0 0.00 0.00 0.00 59 1010.9
20260902235059 92 144 2.0 6.0 0.00 0.00 0.00 59 1010.9
20260902234959 92 181 2.0 6.0 0.00 0.00 0.00 59 1010.9
20260902234858 92 181 0.0 7.0 0.00 0.00 0.00 59 1010.8
20260902234700 92 181 0.0 7.0 0.00 0.00 0.00 58 1010.7
20260902234558 92 181 1.0 7.0 0.00 0.00 0.00 58 1010.8
20260902234458 92 178 2.0 7.0 0.00 0.00 0.00 58 1010.8
20260902234158 92 127 3.0 7.0 0.00 0.00 0.00 58 1010.9
20260902234057 92 158 2.0 7.0 0.00 0.00 0.00 58 1010.9
20260902234001 92 114 3.0 6.0 0.00 0.00 0.00 57 1010.9
20260902233900 92 112 2.0 6.0 0.00 0.00 0.00 57 1010.9
20260902233800 93 173 1.0 6.0 0.00 0.00 0.00 57 1010.9
20260902233600 93 127 3.0 6.0 0.00 0.00 0.00 56 1010.8
20260902233500 93 127 4.0 6.0 0.00 0.00 0.00 56 1010.8
20260902233100 93 102 1.0 3.0 0.00 0.00 0.00 56 1010.8
20260902233001 93 102 2.0 3.0 0.00 0.00 0.00 56 1010.9
20260902232858 93 102 0.0 3.0 0.00 0.00 0.00 56 1010.9
20260902232657 93 154 1.0 3.0 0.00 0.00 0.00 56 1010.8
20260902232601 93 80 0.0 3.0 0.00 0.00 0.00 56 1010.7
20260902232458 93 81 2.0 3.0 0.00 0.00 0.00 56 1010.8
20260902232359 93 80 0.0 3.0 0.00 0.00 0.00 57 1010.8
20260902232257 93 80 1.0 3.0 0.00 0.00 0.00 57 1010.8
20260902232200 93 80 2.0 3.0 0.00 0.00 0.00 57 1010.8
20260902232058 93 102 0.0 5.0 0.00 0.00 0.00 57 1010.8
20260902232001 94 102 0.0 5.0 0.00 0.00 0.00 57 1010.8
20260902231858 94 102 0.0 7.0 0.00 0.00 0.00 57 1010.8
20260902231800 94 102 1.0 7.0 0.00 0.00 0.00 57 1010.8
20260902231658 94 102 1.0 7.0 0.00 0.00 0.00 57 1010.8
20260902231600 94 102 0.0 7.0 0.00 0.00 0.00 57 1010.7
20260902231500 94 102 0.0 7.0 0.00 0.00 0.00 57 1010.8
20260902231359 94 102 1.0 7.0 0.00 0.00 0.00 57 1010.8
20260902231257 94 98 5.0 7.0 0.00 0.00 0.00 57 1010.8
20260902231158 94 146 0.0 7.0 0.00 0.00 0.00 57 1010.9
20260902231001 94 113 2.0 6.0 0.00 0.00 0.00 57 1010.7
20260902230900 94 114 4.0 6.0 0.00 0.00 0.00 57 1010.7
20260902230758 94 125 3.0 6.0 0.00 0.00 0.00 58 1010.7
20260902230659 94 254 1.0 6.0 0.00 0.00 0.00 58 1010.8
20260902230601 94 254 0.0 6.0 0.00 0.00 0.00 58 1010.7
20260902230459 94 254 0.0 6.0 0.00 0.00 0.00 57 1010.7
20260902230359 94 257 5.0 6.0 0.00 0.00 0.00 57 1010.8
20260902230258 94 150 2.0 6.0 0.00 0.00 0.00 58 1010.7
20260902230058 94 94 4.0 4.0 0.00 0.00 0.00 58 1010.8
20260902225858 94 94 0.0 4.0 0.00 0.00 0.00 58 1010.8
20260902225658 94 94 2.0 5.0 0.00 0.00 0.00 58 1010.7
20260902225558 94 146 3.0 5.0 0.00 0.00 0.00 58 1010.8
20260902225459 94 173 2.0 5.0 0.00 0.00 0.00 58 1010.8
20260902225400 94 177 2.0 5.0 0.00 0.00 0.00 58 1010.8
20260902225259 94 101 2.0 5.0 0.00 0.00 0.00 58 1010.9
20260902225200 94 94 0.0 5.0 0.00 0.00 0.00 57 1010.8
20260902225058 94 94 4.0 5.0 0.00 0.00 0.00 58 1010.8
20260902225001 94 74 0.0 5.0 0.00 0.00 0.00 58 1010.9
20260902224857 94 85 1.0 4.0 0.00 0.00 0.00 58 1010.8
20260902224759 94 91 0.0 4.0 0.00 0.00 0.00 58 1010.9
20260902224657 94 91 3.0 4.0 0.00 0.00 0.00 58 1010.9
20260902224601 94 152 0.0 4.0 0.00 0.00 0.00 58 1010.8
20260902224459 94 145 0.0 4.0 0.00 0.00 0.00 58 1010.9
20260902224400 94 145 0.0 4.0 0.00 0.00 0.00 58 1010.8
20260902224258 94 145 0.0 4.0 0.00 0.00 0.00 58 1010.8
20260902224059 94 145 0.0 6.0 0.00 0.00 0.00 57 1010.7
20260902223959 94 145 0.0 6.0 0.00 0.00 0.00 57 1010.7
20260902223800 94 145 2.0 7.0 0.00 0.00 0.00 57 1010.8
20260902223558 94 150 2.0 7.0 0.00 0.00 0.00 57 1010.8
20260902223458 94 150 2.0 7.0 0.00 0.00 0.00 57 1010.8
20260902223358 94 150 2.0 7.0 0.00 0.00 0.00 57 1010.8
20260902223200 95 115 4.0 7.0 0.00 0.00 0.00 57 1010.8
20260902223058 95 115 0.0 7.0 0.00 0.00 0.00 57 1010.8
20260902223002 95 115 2.0 7.0 0.00 0.00 0.00 57 1010.8
20260902222900 95 191 0.0 6.0 0.00 0.00 0.00 57 1010.8
20260902222801 95 191 0.0 6.0 0.00 0.00 0.00 57 1010.8
20260902222700 95 191 5.0 6.0 0.00 0.00 0.00 57 1010.8
20260902222559 95 96 1.0 6.0 0.00 0.00 0.00 57 1010.8
20260902222500 95 115 0.0 6.0 0.00 0.00 0.00 57 1010.8
20260902222258 95 148 0.0 6.0 0.00 0.00 0.00 57 1010.9
20260902222200 95 175 1.0 6.0 0.00 0.00 0.00 57 1010.9
20260902222058 95 122 2.0 7.0 0.00 0.00 0.00 57 1010.9
20260902221858 95 125 2.0 7.0 0.00 0.00 0.00 57 1010.9
20260902221758 95 73 0.0 7.0 0.00 0.00 0.00 57 1010.9
20260902221659 95 73 2.0 7.0 0.00 0.00 0.00 57 1010.8
20260902221558 95 60 2.0 7.0 0.00 0.00 0.00 57 1010.9
20260902221458 95 192 4.0 7.0 0.00 0.00 0.00 57 1010.8
20260902221358 95 140 2.0 7.0 0.00 0.00 0.00 57 1010.8
20260902221300 95 138 2.0 7.0 0.00 0.00 0.00 56 1010.9
20260902221200 95 179 3.0 6.0 0.00 0.00 0.00 57 1010.7
20260902221058 95 200 1.0 6.0 0.00 0.00 0.00 56 1010.8
20260902220959 95 106 0.0 6.0 0.00 0.00 0.00 56 1010.9
20260902220801 95 136 0.0 4.0 0.00 0.00 0.00 56 1010.8
20260902220700 95 136 1.0 4.0 0.00 0.00 0.00 57 1010.9
20260902220600 95 136 0.0 4.0 0.00 0.00 0.00 56 1010.9
20260902220500 95 136 0.0 4.0 0.00 0.00 0.00 57 1010.9
20260902220257 95 136 3.0 4.0 0.00 0.00 0.00 56 1010.8
20260902220158 95 104 0.0 3.0 0.00 0.00 0.00 56 1010.8
20260902220012 95 104 2.0 4.0 0.00 0.00 0.00 56 1010.8
20260902215857 95 104 0.0 5.0 0.00 0.00 0.00 56 1010.9
20260902215558 95 104 1.0 5.0 0.00 0.00 0.00 56 1010.8
20260902215500 95 104 1.0 5.0 0.00 0.00 0.00 56 1010.8
20260902215358 95 104 0.0 5.0 0.00 0.00 0.00 56 1010.8
20260902215258 96 104 0.0 5.0 0.00 0.00 0.00 56 1010.8
20260902215001 96 106 0.0 5.0 0.00 0.00 0.00 55 1010.8
20260902214858 96 106 3.0 5.0 0.00 0.00 0.00 56 1010.8
20260902214800 96 100 2.0 5.0 0.00 0.00 0.00 56 1010.9
20260902214659 96 119 0.0 4.0 0.00 0.00 0.00 56 1010.8
20260902214600 96 119 1.0 4.0 0.00 0.00 0.00 56 1010.9
20260902214459 96 117 0.0 4.0 0.00 0.00 0.00 56 1010.8
20260902214359 96 117 1.0 4.0 0.00 0.00 0.00 56 1010.9
20260902214259 96 117 0.0 3.0 0.00 0.00 0.00 55 1010.9
20260902214159 96 117 0.0 3.0 0.00 0.00 0.00 55 1010.9
20260902214100 96 117 0.0 3.0 0.00 0.00 0.00 55 1010.9
20260902214001 96 117 1.0 4.0 0.00 0.00 0.00 55 1011.0
20260902213858 96 117 2.0 4.0 0.00 0.00 0.00 55 1010.9
20260902213800 96 117 2.0 4.0 0.00 0.00 0.00 54 1011.0
20260902213657 96 117 0.0 4.0 0.00 0.00 0.00 54 1011.0
20260902213600 96 117 0.0 4.0 0.00 0.00 0.00 54 1011.1
20260902213358 96 117 0.0 4.0 0.00 0.00 0.00 54 1011.1
20260902213257 96 117 0.0 5.0 0.00 0.00 0.00 54 1011.1
20260902213100 97 117 1.0 5.0 0.00 0.00 0.00 54 1011.1
20260902213000 97 117 4.0 5.0 0.00 0.00 0.00 54 1011.1
20260902212857 97 117 1.0 5.0 0.00 0.00 0.00 53 1011.0
20260902212759 97 117 0.0 5.0 0.00 0.00 0.00 53 1011.1
20260902212659 97 117 1.0 5.0 0.00 0.00 0.00 53 1011.0
20260902212558 97 140 2.0 5.0 0.00 0.00 0.00 53 1011.0
20260902212400 98 157 0.0 3.0 0.00 0.00 0.00 53 1011.1
20260902212300 98 157 0.0 5.0 0.00 0.00 0.00 53 1011.0
20260902212158 98 163 0.0 5.0 0.00 0.00 0.00 53 1011.1
20260902212004 98 163 1.0 5.0 0.00 0.00 0.00 53 1011.1
20260902211759 98 295 0.0 5.0 0.00 0.00 0.00 54 1011.1
20260902211658 98 295 0.0 5.0 0.00 0.00 0.00 54 1011.0
20260902211059 97 93 2.0 4.0 0.00 0.00 0.00 55 1011.1
20260902211003 97 173 0.0 4.0 0.00 0.00 0.00 55 1011.2
20260902210857 97 173 3.0 4.0 0.00 0.00 0.00 55 1011.1
20260902210759 97 108 0.0 4.0 0.00 0.00 0.00 55 1011.1
20260902210700 97 108 0.0 3.0 0.00 0.00 0.00 55 1011.2
20260902210558 97 108 0.0 3.0 0.00 0.00 0.00 55 1011.2
20260902210458 97 106 1.0 3.0 0.00 0.00 0.00 55 1011.2
20260902210400 97 106 0.0 3.0 0.00 0.00 0.00 55 1011.2
20260902210300 97 106 1.0 3.0 0.00 0.00 0.00 55 1011.2
20260902210200 97 124 0.0 4.0 0.00 0.00 0.00 55 1011.2
20260902210100 97 124 2.0 6.0 0.00 0.00 0.00 55 1011.2
20260902210005 97 124 0.0 6.0 0.00 0.00 0.00 55 1011.2
20260902205859 97 124 0.0 6.0 0.00 0.00 0.00 56 1011.2
20260902205800 97 124 0.0 6.0 0.00 0.00 0.00 55 1011.2
20260902205700 97 124 0.0 6.0 0.00 0.00 0.00 55 1011.2
20260902205558 97 124 1.0 6.0 0.00 0.00 0.00 56 1011.2
20260902205500 97 124 2.0 6.0 0.00 0.00 0.00 55 1011.2
20260902205359 97 124 1.0 6.0 0.00 0.00 0.00 55 1011.1
20260902205257 97 83 4.0 4.0 0.00 0.00 0.00 56 1011.2
20260902205158 97 145 2.0 7.0 0.00 0.00 0.00 55 1011.2
20260902205100 97 145 0.0 7.0 0.00 0.00 0.00 56 1011.3
20260902204859 97 162 1.0 7.0 0.00 0.00 0.00 56 1011.3
20260902204658 97 162 1.0 7.0 0.00 0.00 0.00 56 1011.4
20260902204600 97 165 2.0 7.0 0.00 0.00 0.00 56 1011.4
20260902204459 97 169 1.0 7.0 0.00 0.00 0.00 56 1011.3
20260902204358 97 169 1.0 7.0 0.00 0.00 0.00 56 1011.4
20260902204059 97 119 2.0 5.0 0.00 0.00 0.00 56 1011.5
20260902203959 97 121 0.0 6.0 0.00 0.00 0.00 56 1011.5
20260902203900 97 121 1.0 6.0 0.00 0.00 0.00 56 1011.6
20260902203800 97 121 1.0 6.0 0.00 0.00 0.00 56 1011.6
20260902203659 97 121 0.0 6.0 0.00 0.00 0.00 55 1011.6
20260902203500 97 199 2.0 6.0 0.00 0.00 0.00 56 1011.6
20260902203400 97 184 0.0 6.0 0.00 0.00 0.00 56 1011.6
20260902203300 97 185 0.0 6.0 0.00 0.00 0.00 56 1011.6
20260902203200 97 198 4.0 6.0 0.00 0.00 0.00 55 1011.6
20260902203059 97 225 2.0 5.0 0.00 0.00 0.00 55 1011.6
20260902203000 97 119 2.0 5.0 0.00 0.00 0.00 55 1011.7
20260902202900 97 110 2.0 5.0 0.00 0.00 0.00 55 1011.7
20260902202759 97 103 2.0 5.0 0.00 0.00 0.00 55 1011.6
20260902202659 97 103 3.0 5.0 0.00 0.00 0.00 55 1011.7
20260902202559 97 116 3.0 5.0 0.00 0.00 0.00 55 1011.6
20260902202458 97 121 1.0 5.0 0.00 0.00 0.00 55 1011.7
20260902202358 97 121 3.0 5.0 0.00 0.00 0.00 55 1011.6
20260902202259 97 123 0.0 5.0 0.00 0.00 0.00 56 1011.6
20260902202158 97 122 3.0 5.0 0.00 0.00 0.00 56 1011.6
20260902202057 97 102 0.0 5.0 0.00 0.00 0.00 56 1011.6
20260902201959 97 102 0.0 7.0 0.00 0.00 0.00 55 1011.6
20260902201859 97 102 1.0 7.0 0.00 0.00 0.00 55 1011.6
20260902201800 97 223 0.0 7.0 0.00 0.00 0.00 55 1011.6
20260902201659 97 223 1.0 7.0 0.00 0.00 0.00 55 1011.7
20260902201459 97 289 0.0 7.0 0.00 0.00 0.00 56 1011.7
20260902201358 97 137 2.0 7.0 0.00 0.00 0.00 56 1011.7
20260902201200 97 144 2.0 7.0 0.00 0.00 0.00 56 1011.7
20260902201001 97 58 2.0 4.0 0.00 0.00 0.00 56 1011.8
20260902200859 97 6 0.0 3.0 0.00 0.00 0.00 56 1011.8
20260902200800 97 6 0.0 3.0 0.00 0.00 0.00 56 1011.8
20260902200659 97 6 1.0 3.0 0.00 0.00 0.00 56 1011.9
20260902200559 97 6 2.0 3.0 0.00 0.00 0.00 56 1011.8
20260902200400 97 6 0.0 3.0 0.00 0.00 0.00 56 1011.9
20260902200259 97 13 0.0 3.0 0.00 0.00 0.00 55 1011.9
20260902200057 97 49 0.0 3.0 0.00 0.00 0.00 56 1012.0
20260902195659 97 50 1.0 4.0 0.00 0.00 0.00 56 1012.0
20260902195559 97 45 2.0 4.0 0.00 0.00 0.00 56 1012.1
20260902195500 97 45 0.0 4.0 0.00 0.00 0.00 56 1012.1
20260902195400 97 45 0.0 4.0 0.00 0.00 0.00 56 1012.1
20260902195300 97 48 0.0 4.0 0.00 0.00 0.00 56 1012.1
20260902195200 97 63 1.0 4.0 0.00 0.00 0.00 56 1012.1
20260902195058 97 71 0.0 4.0 0.00 0.00 0.00 56 1012.1
20260902194858 97 70 1.0 4.0 0.00 0.00 0.00 56 1012.2
20260902194800 97 71 1.0 4.0 0.00 0.00 0.00 56 1012.2
20260902194459 97 329 1.0 5.0 0.00 0.00 0.00 56 1012.3
20260902194158 97 328 1.0 6.0 0.00 0.00 0.00 56 1012.3
20260902194059 97 329 2.0 6.0 0.00 0.00 0.00 56 1012.4
20260902193959 97 326 0.0 6.0 0.00 0.00 0.00 57 1012.4
20260902193857 97 321 0.0 6.0 0.00 0.00 0.00 57 1012.3
20260902193758 97 55 0.0 6.0 0.00 0.00 0.00 56 1012.3
20260902193700 97 101 1.0 6.0 0.00 0.00 0.00 56 1012.4
20260902193500 97 170 2.0 4.0 0.00 0.00 0.00 56 1012.4
20260902193400 97 177 2.0 3.0 0.00 0.00 0.00 57 1012.4
20260902193259 97 177 1.0 3.0 0.00 0.00 0.00 57 1012.4
20260902193159 97 144 0.0 3.0 0.00 0.00 0.00 57 1012.4
20260902193100 97 146 0.0 4.0 0.00 0.00 0.00 58 1012.4
20260902192858 97 156 1.0 4.0 0.00 0.00 0.00 57 1012.4
20260902192759 97 156 0.0 4.0 0.00 0.00 0.00 57 1012.5
20260902192659 96 156 0.0 4.0 0.00 0.00 0.00 57 1012.5
20260902192602 96 118 0.0 5.0 0.00 0.00 0.00 57 1012.5
20260902192459 96 117 1.0 5.0 0.00 0.00 0.00 57 1012.5
20260902192400 96 117 0.0 5.0 0.00 0.00 0.00 57 1012.5
20260902192300 96 117 0.0 5.0 0.00 0.00 0.00 57 1012.5
20260902192057 96 117 0.0 5.0 0.00 0.00 0.00 58 1012.5
20260902191859 96 117 1.0 5.0 0.00 0.00 0.00 57 1012.6
20260902191800 97 118 0.0 5.0 0.00 0.00 0.00 57 1012.6
20260902191659 97 118 4.0 5.0 0.00 0.00 0.00 58 1012.7
20260902191558 97 77 0.0 5.0 0.00 0.00 0.00 58 1012.6
20260902191458 97 77 0.0 5.0 0.00 0.00 0.00 57 1012.6
20260902191400 97 77 2.0 5.0 0.00 0.00 0.00 58 1012.6
20260902191259 97 77 3.0 5.0 0.00 0.00 0.00 58 1012.6
20260902191158 97 166 0.0 4.0 0.00 0.00 0.00 58 1012.7
20260902191058 97 220 1.0 4.0 0.00 0.00 0.00 58 1012.6
20260902191001 97 220 1.0 4.0 0.00 0.00 0.00 58 1012.6
20260902190859 97 85 0.0 4.0 0.00 0.00 0.00 58 1012.6
20260902190800 97 85 1.0 4.0 0.00 0.00 0.00 57 1012.6
20260902190658 97 85 2.0 4.0 0.00 0.00 0.00 57 1012.6
20260902190558 97 82 2.0 4.0 0.00 0.00 0.00 58 1012.6
20260902190458 97 82 0.0 5.0 0.00 0.00 0.00 57 1012.6
20260902190400 97 82 0.0 5.0 0.00 0.00 0.00 57 1012.5
20260902190258 98 77 0.0 5.0 0.00 0.00 0.00 58 1012.6
20260902190158 98 77 1.0 5.0 0.00 0.00 0.00 57 1012.7
20260902190057 98 77 0.0 5.0 0.00 0.00 0.00 58 1012.6
20260902190006 98 77 0.0 5.0 0.00 0.00 0.00 58 1012.6
20260902185859 98 77 1.0 5.0 0.00 0.00 0.00 58 1012.7
20260902185759 98 77 2.0 5.0 0.00 0.00 0.00 58 1012.7
20260902185657 97 74 1.0 5.0 0.00 0.00 0.00 58 1012.7
20260902185600 97 119 1.0 4.0 0.00 0.00 0.00 58 1012.7
20260902185500 97 117 0.0 4.0 0.00 0.00 0.00 58 1012.7
20260902185357 97 117 0.0 4.0 0.00 0.00 0.00 58 1012.8
20260902185257 97 117 2.0 4.0 0.00 0.00 0.00 59 1012.7
20260902185200 97 358 2.0 4.0 0.00 0.00 0.00 59 1012.8
20260902185059 97 356 0.0 4.0 0.00 0.00 0.00 59 1012.7
20260902184800 96 358 0.0 4.0 0.00 0.00 0.00 60 1012.8
20260902184600 96 353 1.0 4.0 0.00 0.00 0.00 60 1012.8
20260902184458 96 353 0.0 4.0 0.00 0.00 0.00 59 1012.8
20260902184257 96 354 1.0 4.0 0.00 0.00 0.00 60 1012.9
20260902184158 95 354 0.0 4.0 0.00 0.00 0.00 60 1012.9
20260902184057 95 14 2.0 4.0 0.00 0.00 0.00 60 1013.0
20260902184002 95 17 1.0 5.0 0.00 0.00 0.00 60 1013.0
20260902183859 95 17 2.0 5.0 0.00 0.00 0.00 60 1013.0
20260902183758 95 53 1.0 5.0 0.00 0.00 0.00 60 1013.0
20260902183659 95 53 1.0 5.0 0.00 0.00 0.00 61 1013.1
20260902183600 95 53 1.0 5.0 0.00 0.00 0.00 60 1013.1
20260902183500 95 53 0.0 5.0 0.00 0.00 0.00 61 1013.2
20260902183257 95 306 1.0 5.0 0.00 0.00 0.00 61 1013.1
20260902183158 95 306 0.0 5.0 0.00 0.00 0.00 60 1013.1
20260902183100 95 307 2.0 4.0 0.00 0.00 0.00 60 1013.2
20260902183001 95 308 0.0 4.0 0.00 0.00 0.00 61 1013.2
20260902182857 95 308 0.0 4.0 0.00 0.00 0.00 60 1013.2
20260902182758 95 308 0.0 4.0 0.00 0.00 0.00 61 1013.3
20260902182700 95 310 0.0 2.0 0.00 0.00 0.00 61 1013.2
20260902182259 94 309 0.0 4.0 0.00 0.00 0.00 61 1013.4
20260902182200 94 309 0.0 4.0 0.00 0.00 0.00 61 1013.4
20260902181959 94 309 0.0 4.0 0.00 0.00 0.00 61 1013.4
20260902181859 94 309 0.0 4.0 0.00 0.00 0.00 61 1013.4
20260902181801 94 309 0.0 4.0 0.00 0.00 0.00 61 1013.5
20260902181657 94 312 0.0 4.0 0.00 0.00 0.00 61 1013.5
20260902181558 94 312 0.0 4.0 0.00 0.00 0.00 61 1013.5
20260902181457 94 312 0.0 4.0 0.00 0.00 0.00 61 1013.5
20260902181400 94 312 0.0 4.0 0.00 0.00 0.00 61 1013.5
20260902181258 94 262 0.0 3.0 0.00 0.00 0.00 61 1013.5
20260902181200 94 262 0.0 3.0 0.00 0.00 0.00 61 1013.5
20260902181100 94 262 0.0 3.0 0.00 0.00 0.00 61 1013.6
20260902181001 94 262 0.0 3.0 0.00 0.00 0.00 61 1013.6
20260902180857 94 262 0.0 3.0 0.00 0.00 0.00 61 1013.6
20260902180758 94 262 0.0 3.0 0.00 0.00 0.00 61 1013.6
20260902180600 94 262 0.0 4.0 0.00 0.00 0.00 62 1013.6
20260902180457 94 262 1.0 5.0 0.00 0.00 0.00 62 1013.6
20260902180358 94 250 0.0 5.0 0.00 0.00 0.00 62 1013.6
20260902180259 94 250 0.0 5.0 0.00 0.00 0.00 61 1013.6
20260902180200 94 250 1.0 5.0 0.00 0.00 0.00 62 1013.6
20260902180059 94 250 1.0 5.0 0.00 0.00 0.00 61 1013.7
20260902175859 94 256 3.0 5.0 0.00 0.00 0.00 61 1013.8
20260902175800 94 304 1.0 5.0 0.00 0.00 0.00 61 1013.7
20260902175700 94 304 2.0 5.0 0.00 0.00 0.00 61 1013.8
20260902175558 94 304 3.0 6.0 0.00 0.00 0.00 61 1013.8
20260902175500 94 306 0.0 6.0 0.00 0.00 0.00 61 1013.8
20260902175400 94 306 0.0 6.0 0.00 0.00 0.00 62 1013.8
20260902175257 94 306 0.0 6.0 0.00 0.00 0.00 61 1013.9
20260902175158 94 306 1.0 6.0 0.00 0.00 0.00 61 1013.9
20260902175059 94 306 2.0 6.0 0.00 0.00 0.00 61 1013.9
20260902175001 94 341 0.0 6.0 0.00 0.00 0.00 61 1013.9
20260902174859 94 312 2.0 5.0 0.00 0.00 0.00 61 1013.9
20260902174757 94 307 0.0 5.0 0.00 0.00 0.00 61 1014.0
20260902174657 94 308 0.0 5.0 0.00 0.00 0.00 62 1014.0
20260902174358 94 307 0.0 5.0 0.00 0.00 0.00 61 1014.0
20260902174200 94 269 1.0 4.0 0.00 0.00 0.00 61 1014.1
20260902174059 94 257 1.0 5.0 0.00 0.00 0.00 61 1014.1
20260902173959 94 348 0.0 5.0 0.00 0.00 0.00 61 1014.1
20260902173857 94 350 2.0 5.0 0.00 0.00 0.00 61 1014.1
20260902173802 94 1 0.0 5.0 0.00 0.00 0.00 61 1014.1
20260902173659 94 359 0.0 7.0 0.00 0.00 0.00 61 1014.0
20260902173558 94 359 1.0 7.0 0.00 0.00 0.00 61 1014.1
20260902173500 94 360 1.0 7.0 0.00 0.00 0.00 61 1014.1
20260902173259 94 116 1.0 7.0 0.00 0.00 0.00 61 1014.1
20260902173159 94 110 2.0 7.0 0.00 0.00 0.00 61 1014.2
20260902173057 94 217 0.0 7.0 0.00 0.00 0.00 61 1014.2
20260902173001 94 250 0.0 7.0 0.00 0.00 0.00 61 1014.2
20260902172857 94 164 4.0 5.0 0.00 0.00 0.00 61 1014.2
20260902172758 94 106 1.0 5.0 0.00 0.00 0.00 61 1014.3
20260902172658 94 106 1.0 5.0 0.00 0.00 0.00 61 1014.3
20260902172600 94 106 1.0 5.0 0.00 0.00 0.00 61 1014.3
20260902172358 93 315 0.0 4.0 0.00 0.00 0.00 61 1014.3
20260902172257 93 312 1.0 4.0 0.00 0.00 0.00 61 1014.3
20260902172158 93 308 3.0 4.0 0.00 0.00 0.00 61 1014.4
20260902172100 93 308 0.0 4.0 0.00 0.00 0.00 61 1014.4
20260902172001 93 308 0.0 4.0 0.00 0.00 0.00 61 1014.4
20260902171857 93 308 0.0 4.0 0.00 0.00 0.00 61 1014.4
20260902171800 93 308 3.0 4.0 0.00 0.00 0.00 61 1014.4
20260902171659 93 323 0.0 4.0 0.00 0.00 0.00 61 1014.4
20260902171557 92 323 4.0 4.0 0.00 0.00 0.00 61 1014.4
20260902171458 92 33 0.0 3.0 0.00 0.00 0.00 61 1014.5
20260902171358 92 35 2.0 5.0 0.00 0.00 0.00 61 1014.5
20260902171158 92 127 1.0 5.0 0.00 0.00 0.00 61 1014.5
20260902171057 92 121 0.0 5.0 0.00 0.00 0.00 60 1014.5
20260902170959 91 121 1.0 5.0 0.00 0.00 0.00 60 1014.5
20260902170859 91 97 1.0 5.0 0.00 0.00 0.00 60 1014.5
20260902170800 91 97 1.0 5.0 0.00 0.00 0.00 60 1014.5
20260902170658 91 97 0.0 5.0 0.00 0.00 0.00 60 1014.6
20260902170500 91 69 0.0 4.0 0.00 0.00 0.00 60 1014.6
20260902170400 91 69 0.0 4.0 0.00 0.00 0.00 60 1014.6
20260902170257 91 69 0.0 4.0 0.00 0.00 0.00 60 1014.7
20260902170158 91 4 1.0 4.0 0.00 0.00 0.00 60 1014.6
20260902170059 91 5 2.0 4.0 0.00 0.00 0.00 59 1014.7
20260902170005 91 349 1.0 8.0 0.00 0.00 0.00 59 1014.7
20260902165857 91 29 0.0 8.0 0.00 0.00 0.00 59 1014.6
20260902165758 91 14 1.0 8.0 0.00 0.00 0.00 59 1014.7
20260902165700 91 344 1.0 8.0 0.00 0.00 0.00 59 1014.7
20260902165457 91 345 2.0 8.0 0.00 0.00 0.00 59 1014.7
20260902165358 91 89 0.0 8.0 0.00 0.00 0.00 59 1014.7
20260902165259 91 90 0.0 8.0 0.00 0.00 0.00 59 1014.8
20260902165057 91 94 1.0 5.0 0.00 0.00 0.00 59 1014.7
20260902164959 91 102 1.0 3.0 0.00 0.00 0.00 58 1014.7
20260902164858 91 102 0.0 3.0 0.00 0.00 0.00 57 1014.7
20260902164800 91 102 0.0 3.0 0.00 0.00 0.00 57 1014.7
20260902164659 90 102 0.0 3.0 0.00 0.00 0.00 57 1014.7
20260902164559 90 102 0.0 3.0 0.00 0.00 0.00 57 1014.7
20260902164500 90 102 1.0 3.0 0.00 0.00 0.00 56 1014.8
20260902164400 90 102 0.0 3.0 0.00 0.00 0.00 56 1014.7
20260902164300 90 102 0.0 3.0 0.00 0.00 0.00 56 1014.7
20260902164157 90 102 1.0 3.0 0.00 0.00 0.00 56 1014.8
20260902164058 90 102 1.0 3.0 0.00 0.00 0.00 56 1014.8
20260902164001 90 104 0.0 4.0 0.00 0.00 0.00 55 1014.8
20260902163758 90 104 0.0 4.0 0.00 0.00 0.00 55 1014.8
20260902163600 90 104 1.0 4.0 0.00 0.00 0.00 54 1014.9
20260902163500 90 104 0.0 4.0 0.00 0.00 0.00 54 1014.9
20260902163358 90 104 1.0 4.0 0.00 0.00 0.00 54 1014.9
20260902163257 90 104 1.0 4.0 0.00 0.00 0.00 54 1014.9
20260902163200 90 104 0.0 4.0 0.00 0.00 0.00 53 1014.9
20260902163058 89 104 2.0 4.0 0.00 0.00 0.00 53 1015.0
20260902163000 89 325 2.0 4.0 0.00 0.00 0.00 53 1015.0
20260902162859 89 325 2.0 4.0 0.00 0.00 0.00 53 1015.0
20260902162800 89 284 1.0 4.0 0.00 0.00 0.00 52 1015.0
20260902162558 89 285 0.0 4.0 0.00 0.00 0.00 52 1015.0
20260902162358 89 285 0.0 4.0 0.00 0.00 0.00 52 1015.0
20260902162259 89 300 1.0 4.0 0.00 0.00 0.00 52 1015.0
20260902162057 89 323 2.0 3.0 0.00 0.00 0.00 51 1014.9
20260902162002 89 321 0.0 3.0 0.00 0.00 0.00 49 1015.0
20260902161800 88 85 0.0 4.0 0.00 0.00 0.00 48 1015.1
20260902161658 88 85 0.0 4.0 0.00 0.00 0.00 48 1015.0
20260902161600 88 132 0.0 4.0 0.00 0.00 0.00 47 1015.0
20260902161500 88 132 0.0 4.0 0.00 0.00 0.00 47 1015.1
20260902161400 88 132 0.0 4.0 0.00 0.00 0.00 47 1015.1
20260902161257 88 132 0.0 5.0 0.00 0.00 0.00 47 1015.1
20260902161158 88 132 0.0 5.0 0.00 0.00 0.00 46 1015.0
20260902161100 88 128 2.0 5.0 0.00 0.00 0.00 46 1015.1
20260902161001 88 254 0.0 5.0 0.00 0.00 0.00 46 1015.1
20260902160900 88 271 0.0 6.0 0.00 0.00 0.00 46 1015.0
20260902160800 88 271 0.0 6.0 0.00 0.00 0.00 47 1015.0
20260902160659 88 269 0.0 6.0 0.00 0.00 0.00 46 1015.1
20260902160600 88 191 0.0 6.0 0.00 0.00 0.00 46 1015.0
20260902160358 87 274 0.0 6.0 0.00 0.00 0.00 44 1015.1
20260902160259 87 274 0.0 6.0 0.00 0.00 0.00 43 1015.1
20260902160058 87 283 3.0 7.0 0.00 0.00 0.00 43 1015.0
20260902160000 87 4 1.0 5.0 0.00 0.00 0.00 41 1015.1
20260902155859 87 41 1.0 5.0 0.00 0.00 0.00 41 1015.1
20260902155759 87 69 1.0 5.0 0.00 0.00 0.00 41 1015.1
20260902155700 87 262 0.0 5.0 0.00 0.00 0.00 40 1015.1
20260902155601 87 262 0.0 5.0 0.00 0.00 0.00 40 1015.1
20260902155458 87 262 0.0 5.0 0.00 0.00 0.00 39 1015.1
20260902155359 87 261 0.0 5.0 0.00 0.00 0.00 39 1015.0
20260902155258 87 229 1.0 5.0 0.00 0.00 0.00 39 1015.0
20260902155159 87 229 0.0 5.0 0.00 0.00 0.00 37 1015.0
20260902155101 87 296 0.0 5.0 0.00 0.00 0.00 35 1015.0
20260902154858 86 296 2.0 6.0 0.00 0.00 0.00 36 1014.9
20260902154658 86 294 0.0 6.0 0.00 0.00 0.00 34 1015.0
20260902154500 86 302 0.0 6.0 0.00 0.00 0.00 33 1015.1
20260902154359 86 302 0.0 6.0 0.00 0.00 0.00 33 1015.0
20260902154258 86 299 0.0 6.0 0.00 0.00 0.00 32 1015.0
20260902154159 86 298 0.0 6.0 0.00 0.00 0.00 34 1014.9
20260902154058 86 298 0.0 6.0 0.00 0.00 0.00 34 1015.0
20260902154001 86 287 0.0 5.0 0.00 0.00 0.00 33 1014.9
20260902153859 86 287 0.0 5.0 0.00 0.00 0.00 32 1014.9
20260902153800 86 321 1.0 5.0 0.00 0.00 0.00 31 1014.9
20260902153659 86 224 0.0 5.0 0.00 0.00 0.00 30 1014.9
20260902153559 85 321 1.0 5.0 0.00 0.00 0.00 29 1014.9
20260902153459 85 302 1.0 5.0 0.00 0.00 0.00 28 1014.9
20260902153401 85 302 0.0 5.0 0.00 0.00 0.00 28 1014.9
20260902153259 85 314 1.0 5.0 0.00 0.00 0.00 27 1014.9
20260902153159 85 314 1.0 5.0 0.00 0.00 0.00 26 1014.9
20260902153100 85 314 0.0 5.0 0.00 0.00 0.00 26 1014.9
20260902153000 85 314 0.0 5.0 0.00 0.00 0.00 27 1014.8
20260902152859 85 314 1.0 5.0 0.00 0.00 0.00 27 1014.9
20260902152759 85 314 0.0 8.0 0.00 0.00 0.00 26 1014.8
20260902152701 85 328 1.0 8.0 0.00 0.00 0.00 26 1014.8
20260902152459 85 302 0.0 8.0 0.00 0.00 0.00 25 1014.8
20260902152359 85 277 2.0 8.0 0.00 0.00 0.00 25 1014.8
20260902152259 85 277 2.0 8.0 0.00 0.00 0.00 25 1014.8
20260902152058 85 258 1.0 8.0 0.00 0.00 0.00 24 1014.8
20260902152001 85 258 3.0 8.0 0.00 0.00 0.00 22 1014.8
20260902151900 85 302 0.0 4.0 0.00 0.00 0.00 21 1014.8
20260902151759 85 302 2.0 5.0 0.00 0.00 0.00 21 1014.7
20260902151659 85 302 1.0 5.0 0.00 0.00 0.00 21 1014.7
20260902151559 85 303 1.0 5.0 0.00 0.00 0.00 20 1014.7
20260902151459 84 296 0.0 6.0 0.00 0.00 0.00 18 1014.7
20260902151359 84 296 0.0 6.0 0.00 0.00 0.00 18 1014.7
20260902151259 84 296 1.0 6.0 0.00 0.00 0.00 18 1014.7
20260902151159 84 296 0.0 7.0 0.00 0.00 0.00 18 1014.8
20260902151059 84 296 0.0 7.0 0.00 0.00 0.00 18 1014.7
20260902151001 84 296 3.0 7.0 0.00 0.00 0.00 17 1014.7
20260902150859 84 203 1.0 7.0 0.00 0.00 0.00 16 1014.8
20260902150759 84 204 0.0 7.0 0.00 0.00 0.00 16 1014.7
20260902150659 84 288 2.0 7.0 0.00 0.00 0.00 15 1014.7
20260902150559 84 285 0.0 7.0 0.00 0.00 0.00 14 1014.7
20260902150459 84 281 3.0 7.0 0.00 0.00 0.00 13 1014.7
20260902150400 84 258 1.0 7.0 0.00 0.00 0.00 13 1014.7
20260902150258 84 267 2.0 6.0 0.00 0.00 0.00 12 1014.7
20260902150059 84 227 2.0 8.0 0.00 0.00 0.00 11 1014.6
20260902150003 84 264 5.0 8.0 0.00 0.00 0.00 10 1014.6
20260902145859 84 330 1.0 8.0 0.00 0.00 0.00 10 1014.7
20260902145658 83 258 2.0 8.0 0.00 0.00 0.00 9 1014.7
20260902145600 83 262 3.0 8.0 0.00 0.00 0.00 8 1014.7
20260902145459 83 257 0.0 8.0 0.00 0.00 0.00 8 1014.7
20260902145359 83 257 0.0 8.0 0.00 0.00 0.00 8 1014.7
20260902145259 83 277 3.0 8.0 0.00 0.00 0.00 4 1014.7
20260902145200 83 286 0.0 8.0 0.00 0.00 0.00 4 1014.7
20260902145059 83 286 0.0 8.0 0.00 0.00 0.00 4 1014.7
20260902144859 83 201 0.0 7.0 0.00 0.00 0.00 3 1014.7
20260902144800 83 201 0.0 7.0 0.00 0.00 0.00 2 1014.7
20260902144659 83 198 1.0 7.0 0.00 0.00 0.00 100 1014.7
20260902144602 83 287 0.0 2.0 0.00 0.00 0.00 100 1014.7
20260902144359 83 287 0.0 3.0 0.00 0.00 0.00 100 1014.7
20260902144158 83 287 0.0 3.0 0.00 0.00 0.00 100 1014.7
20260902143959 83 287 0.0 5.0 0.00 0.00 0.00 100 1014.7
20260902143859 82 287 0.0 5.0 0.00 0.00 0.00 100 1014.7
20260902143800 82 287 0.0 5.0 0.00 0.00 0.00 100 1014.7
20260902143700 82 287 0.0 5.0 0.00 0.00 0.00 100 1014.7
20260902143559 82 287 1.0 5.0 0.00 0.00 0.00 100 1014.7
20260902143459 82 287 0.0 5.0 0.00 0.00 0.00 100 1014.6
20260902143158 82 277 1.0 4.0 0.00 0.00 0.00 100 1014.6
20260902143059 82 271 0.0 4.0 0.00 0.00 0.00 100 1014.6
20260902142958 82 271 0.0 4.0 0.00 0.00 0.00 100 1014.6
20260902142859 82 271 0.0 4.0 0.00 0.00 0.00 100 1014.7
20260902142800 82 271 0.0 4.0 0.00 0.00 0.00 100 1014.6
20260902142657 82 271 2.0 4.0 0.00 0.00 0.00 100 1014.6
20260902142600 82 270 0.0 4.0 0.00 0.00 0.00 100 1014.7
20260902142457 82 275 2.0 4.0 0.00 0.00 0.00 100 1014.6
20260902142359 81 273 0.0 4.0 0.00 0.00 0.00 100 1014.6
20260902142259 81 273 0.0 4.0 0.00 0.00 0.00 100 1014.7
20260902142057 81 273 4.0 4.0 0.00 0.00 0.00 100 1014.7
20260902142001 81 299 3.0 4.0 0.00 0.00 0.00 100 1014.7
20260902141857 81 299 0.0 4.0 0.00 0.00 0.00 100 1014.7
20260902141759 81 298 0.0 4.0 0.00 0.00 0.00 100 1014.7
20260902141659 81 298 0.0 4.0 0.00 0.00 0.00 100 1014.7
20260902141600 81 298 0.0 4.0 0.00 0.00 0.00 100 1014.7
20260902141500 81 298 0.0 4.0 0.00 0.00 0.00 100 1014.7
20260902141359 81 298 0.0 4.0 0.00 0.00 0.00 100 1014.7
20260902141259 81 298 0.0 3.0 0.00 0.00 0.00 100 1014.7
20260902140959 81 298 0.0 3.0 0.00 0.00 0.00 100 1014.6
20260902140559 81 298 0.0 3.0 0.00 0.00 0.00 100 1014.6
20260902140500 81 294 0.0 2.0 0.00 0.00 0.00 100 1014.6
20260902140359 81 294 0.0 2.0 0.00 0.00 0.00 100 1014.7
20260902140259 80 294 0.0 2.0 0.00 0.00 0.00 100 1014.7
20260902140158 80 294 1.0 2.0 0.00 0.00 0.00 100 1014.6
20260902140059 80 294 0.0 2.0 0.00 0.00 0.00 100 1014.7
20260902140006 80 295 1.0 5.0 0.00 0.00 0.00 100 1014.7
20260902135857 80 295 0.0 5.0 0.00 0.00 0.00 100 1014.7
20260902135758 80 295 0.0 5.0 0.00 0.00 0.00 100 1014.6
20260902135657 80 295 0.0 5.0 0.00 0.00 0.00 100 1014.7
20260902135600 80 295 0.0 5.0 0.00 0.00 0.00 100 1014.7
20260902135459 80 295 0.0 5.0 0.00 0.00 0.00 100 1014.7
20260902135359 80 295 0.0 5.0 0.00 0.00 0.00 100 1014.7
20260902135258 80 295 0.0 5.0 0.00 0.00 0.00 100 1014.7
20260902135200 80 295 0.0 5.0 0.00 0.00 0.00 100 1014.6
20260902135057 80 295 0.0 3.0 0.00 0.00 0.00 100 1014.7
20260902134959 80 295 0.0 2.0 0.00 0.00 0.00 100 1014.7
20260902134857 80 308 0.0 2.0 0.00 0.00 0.00 100 1014.7
20260902134800 80 308 0.0 2.0 0.00 0.00 0.00 100 1014.8
20260902134557 80 308 0.0 2.0 0.00 0.00 0.00 100 1014.7
20260902134457 80 308 0.0 2.0 0.00 0.00 0.00 100 1014.7
20260902134400 80 308 0.0 2.0 0.00 0.00 0.00 100 1014.7
20260902134259 80 308 0.0 2.0 0.00 0.00 0.00 100 1014.7
20260902134158 80 306 0.0 2.0 0.00 0.00 0.00 100 1014.8
20260902134058 80 306 0.0 2.0 0.00 0.00 0.00 100 1014.8
20260902134001 80 306 0.0 2.0 0.00 0.00 0.00 100 1014.7
20260902133859 80 306 2.0 2.0 0.00 0.00 0.00 100 1014.7
20260902133758 80 306 0.0 2.0 0.00 0.00 0.00 100 1014.7
20260902133600 80 307 0.0 2.0 0.00 0.00 0.00 100 1014.7
20260902133459 80 307 0.0 3.0 0.00 0.00 0.00 100 1014.7
20260902133358 80 307 0.0 3.0 0.00 0.00 0.00 100 1014.7
20260902133257 80 307 0.0 3.0 0.00 0.00 0.00 100 1014.7
20260902133059 79 306 0.0 3.0 0.00 0.00 0.00 100 1014.7
20260902132959 79 306 0.0 3.0 0.00 0.00 0.00 100 1014.6
20260902132857 79 306 0.0 3.0 0.00 0.00 0.00 100 1014.7
20260902132800 79 306 0.0 3.0 0.00 0.00 0.00 100 1014.6
20260902132659 79 306 1.0 3.0 0.00 0.00 0.00 100 1014.6
20260902132601 79 306 0.0 2.0 0.00 0.00 0.00 100 1014.6
20260902132457 79 306 0.0 2.0 0.00 0.00 0.00 100 1014.6
20260902132256 79 306 0.0 2.0 0.00 0.00 0.00 100 1014.6
20260902132158 79 306 0.0 2.0 0.00 0.00 0.00 100 1014.6
20260902132057 79 306 0.0 2.0 0.00 0.00 0.00 100 1014.6
20260902132001 79 306 0.0 2.0 0.00 0.00 0.00 100 1014.6
20260902131859 79 306 0.0 2.0 0.00 0.00 0.00 100 1014.5
20260902131758 79 306 0.0 2.0 0.00 0.00 0.00 100 1014.5
20260902131559 79 306 0.0 2.0 0.00 0.00 0.00 100 1014.5
20260902131459 79 306 0.0 2.0 0.00 0.00 0.00 100 1014.4
20260902131257 79 306 0.0 2.0 0.00 0.00 0.00 100 1014.4
20260902131200 79 306 0.0 2.0 0.00 0.00 0.00 100 1014.4
20260902131059 79 306 0.0 2.0 0.00 0.00 0.00 100 1014.3
20260902130857 79 306 0.0 1.0 0.00 0.00 0.00 100 1014.4
20260902130758 79 306 0.0 1.0 0.00 0.00 0.00 100 1014.4
20260902130659 79 306 0.0 1.0 0.00 0.00 0.00 100 1014.4
20260902130600 79 306 0.0 1.0 0.00 0.00 0.00 100 1014.4
20260902130458 79 306 0.0 1.0 0.00 0.00 0.00 100 1014.5
20260902130400 79 306 0.0 1.0 0.00 0.00 0.00 100 1014.4
20260902130200 79 306 0.0 1.0 0.00 0.00 0.00 100 1014.4
20260902125959 79 306 0.0 1.0 0.00 0.00 0.00 100 1014.4
20260902125800 79 306 0.0 1.0 0.00 0.00 0.00 100 1014.4
20260902125657 79 306 0.0 1.0 0.00 0.00 0.00 100 1014.4
20260902125558 79 306 0.0 1.0 0.00 0.00 0.00 100 1014.4
20260902125459 79 306 0.0 1.0 0.00 0.00 0.00 100 1014.3
20260902125400 79 305 0.0 1.0 0.00 0.00 0.00 100 1014.3
20260902125256 78 305 0.0 1.0 0.00 0.00 0.00 100 1014.3
20260902125158 79 305 0.0 1.0 0.00 0.00 0.00 100 1014.2
20260902125059 78 305 0.0 1.0 0.00 0.00 0.00 100 1014.3
20260902125001 78 305 0.0 1.0 0.00 0.00 0.00 100 1014.2
20260902124857 78 305 0.0 1.0 0.00 0.00 0.00 100 1014.2
20260902124758 78 304 0.0 1.0 0.00 0.00 0.00 100 1014.2
20260902124659 78 304 0.0 0.0 0.00 0.00 0.00 100 1014.2
20260902124559 78 304 0.0 0.0 0.00 0.00 0.00 100 1014.2
20260902124459 78 304 0.0 0.0 0.00 0.00 0.00 100 1014.2
20260902124358 78 304 0.0 1.0 0.00 0.00 0.00 100 1014.1
20260902124257 78 304 0.0 1.0 0.00 0.00 0.00 100 1014.1
20260902124059 78 304 0.0 1.0 0.00 0.00 0.00 100 1014.1
20260902124001 78 304 0.0 1.0 0.00 0.00 0.00 100 1014.0
20260902123857 78 304 0.0 1.0 0.00 0.00 0.00 100 1014.1
20260902123759 78 304 0.0 1.0 0.00 0.00 0.00 100 1014.0
20260902123657 78 304 0.0 1.0 0.00 0.00 0.00 100 1014.0
20260902123459 78 304 0.0 1.0 0.00 0.00 0.00 100 1013.9
20260902123400 78 304 1.0 1.0 0.00 0.00 0.00 100 1013.8
20260902123259 78 304 0.0 1.0 0.00 0.00 0.00 100 1013.8
20260902123057 78 304 0.0 2.0 0.00 0.00 0.00 100 1013.7
20260902123001 78 304 0.0 2.0 0.00 0.00 0.00 100 1013.7
20260902122859 78 304 0.0 2.0 0.00 0.00 0.00 100 1013.7
20260902122758 78 304 0.0 2.0 0.00 0.00 0.00 100 1013.6
20260902122657 78 304 0.0 2.0 0.00 0.00 0.00 100 1013.6
20260902122600 78 304 0.0 2.0 0.00 0.00 0.00 100 1013.5
20260902122459 78 304 0.0 2.0 0.00 0.00 0.00 100 1013.6
20260902122358 78 304 0.0 2.0 0.00 0.00 0.00 100 1013.5
20260902122257 78 304 0.0 2.0 0.00 0.00 0.00 100 1013.4
20260902122159 78 304 0.0 1.0 0.00 0.00 0.00 100 1013.4
20260902122059 78 304 0.0 1.0 0.00 0.00 0.00 100 1013.4
20260902121958 78 304 0.0 1.0 0.00 0.00 0.00 100 1013.4
20260902121857 78 304 0.0 1.0 0.00 0.00 0.00 100 1013.3
20260902121800 78 304 0.0 2.0 0.00 0.00 0.00 100 1013.4
20260902121659 78 304 0.0 2.0 0.00 0.00 0.00 100 1013.3
20260902121557 78 304 0.0 2.0 0.00 0.00 0.00 100 1013.3
20260902121457 78 304 0.0 2.0 0.00 0.00 0.00 100 1013.3
20260902121359 78 304 0.0 2.0 0.00 0.00 0.00 100 1013.3
20260902121259 78 304 0.0 2.0 0.00 0.00 0.00 100 1013.3
20260902121157 78 304 0.0 2.0 0.00 0.00 0.00 100 1013.3
20260902121057 78 304 0.0 2.0 0.00 0.00 0.00 100 1013.3
20260902121001 78 303 0.0 2.0 0.00 0.00 0.00 100 1013.3
20260902120859 78 304 0.0 1.0 0.00 0.00 0.00 100 1013.2
20260902120657 78 304 0.0 1.0 0.00 0.00 0.00 100 1013.2
20260902120600 78 304 0.0 0.0 0.00 0.00 0.00 100 1013.2
20260902120459 78 304 0.0 0.0 0.00 0.00 0.00 100 1013.2
20260902120358 78 304 0.0 0.0 0.00 0.00 0.00 100 1013.2
20260902120257 78 304 0.0 0.0 0.00 0.00 0.00 100 1013.2
20260902120059 78 304 0.0 0.0 0.00 0.00 0.00 100 1013.2
20260902115857 78 304 0.0 1.0 0.00 0.00 0.00 100 1013.2
20260902115800 78 304 0.0 1.0 0.00 0.00 0.00 100 1013.2
20260902115700 78 304 0.0 1.0 0.00 0.00 0.00 100 1013.2
20260902115557 78 304 0.0 1.0 0.00 0.00 0.00 100 1013.2
20260902115359 78 304 0.0 1.0 0.00 0.00 0.00 100 1013.3
20260902115200 78 304 0.0 1.0 0.00 0.00 0.00 100 1013.2
20260902115059 78 304 0.0 1.0 0.00 0.00 0.00 100 1013.2
20260902114958 78 304 0.0 1.0 0.00 0.00 0.00 100 1013.2
20260902114900 78 304 0.0 1.0 0.00 0.00 0.00 100 1013.2
20260902114757 78 304 0.0 1.0 0.00 0.00 0.00 100 1013.2
20260902114657 78 304 0.0 1.0 0.00 0.00 0.00 100 1013.3
20260902114558 78 303 1.0 1.0 0.00 0.00 0.00 100 1013.2
20260902114500 78 304 0.0 1.0 0.00 0.00 0.00 100 1013.2
20260902114400 78 303 0.0 1.0 0.00 0.00 0.00 100 1013.2
20260902114257 78 303 0.0 1.0 0.00 0.00 0.00 100 1013.2
20260902114200 78 303 0.0 1.0 0.00 0.00 0.00 100 1013.3
20260902114001 78 304 0.0 1.0 0.00 0.00 0.00 100 1013.2
20260902113857 78 304 0.0 1.0 0.00 0.00 0.00 100 1013.2
20260902113758 78 304 0.0 1.0 0.00 0.00 0.00 100 1013.2
20260902113658 78 303 0.0 0.0 0.00 0.00 0.00 100 1013.3
20260902113459 78 303 0.0 0.0 0.00 0.00 0.00 100 1013.3
20260902113358 78 303 0.0 0.0 0.00 0.00 0.00 100 1013.3
20260902113259 78 303 0.0 0.0 0.00 0.00 0.00 100 1013.4
20260902113159 78 303 0.0 1.0 0.00 0.00 0.00 100 1013.3
20260902113057 78 303 0.0 1.0 0.00 0.00 0.00 100 1013.4
20260902112959 78 303 0.0 1.0 0.00 0.00 0.00 100 1013.4
20260902112859 78 303 0.0 1.0 0.00 0.00 0.00 100 1013.4
20260902112800 78 303 0.0 1.0 0.00 0.00 0.00 100 1013.4
20260902112657 78 303 0.0 1.0 0.00 0.00 0.00 100 1013.4
20260902112557 78 303 0.0 1.0 0.00 0.00 0.00 100 1013.3
20260902112459 78 303 0.0 1.0 0.00 0.00 0.00 100 1013.3
20260902112359 78 303 0.0 1.0 0.00 0.00 0.00 100 1013.3
20260902112259 78 303 0.0 0.0 0.00 0.00 0.00 100 1013.3
20260902112158 78 303 0.0 0.0 0.00 0.00 0.00 100 1013.4
20260902112059 78 303 0.0 0.0 0.00 0.00 0.00 100 1013.3
20260902112001 78 303 0.0 0.0 0.00 0.00 0.00 100 1013.3
20260902111859 78 303 0.0 0.0 0.00 0.00 0.00 100 1013.3
20260902111657 78 303 0.0 0.0 0.00 0.00 0.00 100 1013.3
20260902111559 78 303 0.0 0.0 0.00 0.00 0.00 100 1013.3
20260902111459 78 303 0.0 0.0 0.00 0.00 0.00 100 1013.2
20260902111257 78 303 0.0 0.0 0.00 0.00 0.00 100 1013.3
20260902111200 78 303 0.0 0.0 0.00 0.00 0.00 100 1013.3
20260902111059 78 303 0.0 0.0 0.00 0.00 0.00 100 1013.2
20260902110959 78 303 0.0 0.0 0.00 0.00 0.00 100 1013.3
20260902110857 78 303 0.0 0.0 0.00 0.00 0.00 100 1013.3
20260902110459 78 303 0.0 0.0 0.00 0.00 0.00 100 1013.2
20260902110400 78 303 0.0 0.0 0.00 0.00 0.00 100 1013.2
20260902110257 78 303 0.0 0.0 0.00 0.00 0.00 100 1013.2
20260902110158 78 303 0.0 0.0 0.00 0.00 0.00 100 1013.2
20260902110057 78 303 0.0 0.0 0.00 0.00 0.00 100 1013.2
20260902110007 78 303 0.0 0.0 0.00 0.00 0.00 100 1013.2
20260902105859 78 303 0.0 0.0 0.00 0.00 0.00 100 1013.1
20260902105800 78 303 0.0 0.0 0.00 0.00 0.00 100 1013.2
20260902105657 78 303 0.0 0.0 0.00 0.00 0.00 100 1013.2
20260902105557 78 303 0.0 0.0 0.00 0.00 0.00 100 1013.2
20260902105459 79 303 0.0 1.0 0.00 0.00 0.00 100 1013.2
20260902105359 79 303 0.0 1.0 0.00 0.00 0.00 100 1013.2
20260902105159 79 303 0.0 1.0 0.00 0.00 0.00 100 1013.2
20260902105057 79 303 0.0 1.0 0.00 0.00 0.00 100 1013.2
20260902105000 79 303 0.0 1.0 0.00 0.00 0.00 100 1013.2
20260902104800 79 303 0.0 1.0 0.00 0.00 0.00 100 1013.2
20260902104659 79 303 0.0 1.0 0.00 0.00 0.00 100 1013.3
20260902104557 79 303 0.0 1.0 0.00 0.00 0.00 100 1013.3
20260902104457 79 303 0.0 1.0 0.00 0.00 0.00 100 1013.3
20260902104359 79 303 0.0 0.0 0.00 0.00 0.00 100 1013.3
20260902104259 79 303 0.0 0.0 0.00 0.00 0.00 100 1013.3
20260902104159 79 303 0.0 0.0 0.00 0.00 0.00 100 1013.3
20260902104057 79 303 0.0 0.0 0.00 0.00 0.00 100 1013.3
20260902103959 79 303 0.0 0.0 0.00 0.00 0.00 100 1013.3
20260902103900 79 303 0.0 0.0 0.00 0.00 0.00 100 1013.3
20260902103800 79 303 0.0 0.0 0.00 0.00 0.00 100 1013.3
20260902103558 79 303 0.0 1.0 0.00 0.00 0.00 100 1013.3
20260902103459 79 303 0.0 1.0 0.00 0.00 0.00 100 1013.3
20260902103359 79 303 0.0 1.0 0.00 0.00 0.00 100 1013.3
20260902103257 79 303 0.0 1.0 0.00 0.00 0.00 100 1013.3
20260902103158 79 303 0.0 1.0 0.00 0.00 0.00 100 1013.3
20260902103058 79 303 0.0 1.0 0.00 0.00 0.00 100 1013.2
20260902103001 79 303 0.0 1.0 0.00 0.00 0.00 100 1013.2
20260902102858 79 303 0.0 1.0 0.00 0.00 0.00 100 1013.2
20260902102759 79 303 0.0 1.0 0.00 0.00 0.00 100 1013.1
20260902102459 79 303 0.0 1.0 0.00 0.00 0.00 100 1013.1
20260902102359 79 303 0.0 1.0 0.00 0.00 0.00 100 1013.0
20260902102256 79 303 0.0 1.0 0.00 0.00 0.00 100 1013.0
20260902102158 79 303 0.0 1.0 0.00 0.00 0.00 100 1013.0
20260902102059 79 303 0.0 1.0 0.00 0.00 0.00 100 1013.0
20260902102000 79 303 0.0 1.0 0.00 0.00 0.00 100 1013.0
20260902101759 79 303 0.0 1.0 0.00 0.00 0.00 100 1013.0
20260902101658 79 303 0.0 1.0 0.00 0.00 0.00 100 1013.0
20260902101458 79 303 0.0 1.0 0.00 0.00 0.00 100 1013.0
20260902101359 79 303 0.0 1.0 0.00 0.00 0.00 100 1013.0
20260902101259 79 303 0.0 1.0 0.00 0.00 0.00 100 1013.0
20260902101159 79 303 0.0 1.0 0.00 0.00 0.00 100 1013.0
20260902100859 79 303 0.0 1.0 0.00 0.00 0.00 100 1013.0
20260902100659 79 303 0.0 1.0 0.00 0.00 0.00 100 1012.9
20260902100559 79 303 0.0 2.0 0.00 0.00 0.00 100 1012.9
20260902100459 79 303 0.0 2.0 0.00 0.00 0.00 100 1012.9
20260902100359 79 303 0.0 2.0 0.00 0.00 0.00 100 1013.0
20260902100259 79 303 0.0 2.0 0.00 0.00 0.00 100 1013.0
20260902100059 79 303 0.0 2.0 0.00 0.00 0.00 100 1013.0
20260902100007 79 303 0.0 2.0 0.00 0.00 0.00 100 1013.0
20260902095900 79 303 0.0 2.0 0.00 0.00 0.00 100 1012.9
20260902095800 79 303 0.0 2.0 0.00 0.00 0.00 100 1013.0
20260902095700 79 303 0.0 2.0 0.00 0.00 0.00 100 1012.9
20260902095600 79 303 0.0 2.0 0.00 0.00 0.00 100 1012.9
20260902095500 79 303 0.0 2.0 0.00 0.00 0.00 100 1013.0
20260902095400 79 303 0.0 2.0 0.00 0.00 0.00 100 1013.0
20260902095200 79 303 1.0 2.0 0.00 0.00 0.00 100 1013.0
20260902095100 79 303 0.0 2.0 0.00 0.00 0.00 100 1013.0
20260902095001 79 303 1.0 2.0 0.00 0.00 0.00 100 1013.0
20260902094859 79 303 0.0 1.0 0.00 0.00 0.00 100 1013.0
20260902094759 79 303 1.0 1.0 0.00 0.00 0.00 100 1013.0
20260902094700 79 303 0.0 2.0 0.00 0.00 0.00 100 1013.0
20260902094600 79 303 0.0 2.0 0.00 0.00 0.00 100 1013.0
20260902094459 79 303 0.0 2.0 0.00 0.00 0.00 100 1013.0
20260902094300 79 303 0.0 2.0 0.00 0.00 0.00 100 1013.0
20260902094100 79 303 0.0 2.0 0.00 0.00 0.00 100 1013.1
20260902094000 79 303 0.0 2.0 0.00 0.00 0.00 100 1013.1
20260902093859 79 303 0.0 2.0 0.00 0.00 0.00 100 1013.0
20260902093800 79 302 0.0 2.0 0.00 0.00 0.00 100 1013.1
20260902093558 79 302 0.0 2.0 0.00 0.00 0.00 100 1013.1
20260902093500 79 302 0.0 2.0 0.00 0.00 0.00 100 1013.1
20260902093400 79 302 1.0 2.0 0.00 0.00 0.00 100 1013.1
20260902093258 79 302 0.0 1.0 0.00 0.00 0.00 100 1013.1
20260902093158 80 302 0.0 1.0 0.00 0.00 0.00 100 1013.1
20260902093058 79 302 0.0 1.0 0.00 0.00 0.00 100 1013.1
20260902093001 80 302 0.0 1.0 0.00 0.00 0.00 100 1013.1
20260902092900 80 302 0.0 2.0 0.00 0.00 0.00 100 1013.1
20260902092758 80 302 0.0 2.0 0.00 0.00 0.00 100 1013.1
20260902092700 80 302 0.0 2.0 0.00 0.00 0.00 100 1013.1
20260902092558 80 302 0.0 2.0 0.00 0.00 0.00 100 1013.1
20260902092500 80 302 0.0 2.0 0.00 0.00 0.00 100 1013.1
20260902092400 80 302 0.0 2.0 0.00 0.00 0.00 100 1013.1
20260902092300 80 302 0.0 2.0 0.00 0.00 0.00 100 1013.1
20260902092200 80 302 0.0 2.0 0.00 0.00 0.00 100 1013.1
20260902092001 80 300 0.0 1.0 0.00 0.00 0.00 100 1013.1
20260902091859 80 300 0.0 1.0 0.00 0.00 0.00 100 1013.1
20260902091759 80 300 0.0 2.0 0.00 0.00 0.00 100 1013.1
20260902091659 80 300 0.0 2.0 0.00 0.00 0.00 100 1013.0
20260902091600 80 300 0.0 2.0 0.00 0.00 0.00 100 1013.0
20260902091458 80 300 0.0 2.0 0.00 0.00 0.00 100 1013.0
20260902091359 80 300 0.0 2.0 0.00 0.00 0.00 100 1013.0
20260902091259 80 300 0.0 2.0 0.00 0.00 0.00 100 1013.0
20260902091158 80 300 0.0 2.0 0.00 0.00 0.00 100 1013.0
20260902091058 80 300 0.0 2.0 0.00 0.00 0.00 100 1012.9
20260902091000 80 300 0.0 2.0 0.00 0.00 0.00 100 1012.9
20260902090858 80 300 0.0 2.0 0.00 0.00 0.00 100 1012.9
20260902090802 80 300 0.0 2.0 0.00 0.00 0.00 100 1012.9
20260902090700 80 300 1.0 2.0 0.00 0.00 0.00 100 1012.9
20260902090558 80 300 0.0 1.0 0.00 0.00 0.00 100 1012.9
20260902090458 80 300 0.0 1.0 0.00 0.00 0.00 100 1012.8
20260902090400 80 300 1.0 1.0 0.00 0.00 0.00 100 1012.9
20260902090259 80 300 0.0 1.0 0.00 0.00 0.00 100 1012.9
20260902090159 80 300 0.0 1.0 0.00 0.00 0.00 100 1012.9
20260902090059 80 300 0.0 4.0 0.00 0.00 0.00 100 1012.8
20260902090005 80 300 0.0 4.0 0.00 0.00 0.00 100 1012.8
20260902085859 80 300 0.0 4.0 0.00 0.00 0.00 100 1012.8
20260902085758 80 300 0.0 4.0 0.00 0.00 0.00 100 1012.8
20260902085700 80 300 0.0 4.0 0.00 0.00 0.00 100 1012.8
20260902085501 80 300 0.0 4.0 0.00 0.00 0.00 100 1012.8
20260902085358 80 300 0.0 4.0 0.00 0.00 0.00 100 1012.9
20260902085258 80 300 0.0 4.0 0.00 0.00 0.00 100 1012.9
20260902085100 80 354 0.0 2.0 0.00 0.00 0.00 100 1012.8
20260902085000 80 354 0.0 2.0 0.00 0.00 0.00 100 1012.8
20260902084858 80 354 0.0 2.0 0.00 0.00 0.00 100 1012.8
20260902084558 80 354 0.0 2.0 0.00 0.00 0.00 100 1012.8
20260902084500 80 354 0.0 2.0 0.00 0.00 0.00 100 1012.9
20260902084400 80 354 0.0 1.0 0.00 0.00 0.00 100 1012.9
20260902084158 80 354 0.0 1.0 0.00 0.00 0.00 100 1012.9
20260902084058 80 354 0.0 1.0 0.00 0.00 0.00 100 1012.9
20260902084001 80 354 0.0 1.0 0.00 0.00 0.00 100 1012.9
20260902083900 80 354 0.0 1.0 0.00 0.00 0.00 100 1012.9
20260902083759 80 354 0.0 0.0 0.00 0.00 0.00 100 1013.0
20260902083658 80 354 0.0 0.0 0.00 0.00 0.00 100 1013.0
20260902083600 80 354 0.0 0.0 0.00 0.00 0.00 100 1013.0
20260902083500 80 354 0.0 0.0 0.00 0.00 0.00 100 1013.0
20260902083358 80 354 0.0 0.0 0.00 0.00 0.00 100 1013.0
20260902083200 80 354 0.0 3.0 0.00 0.00 0.00 100 1013.0
20260902083100 80 354 0.0 3.0 0.00 0.00 0.00 100 1013.0
20260902083000 80 354 0.0 3.0 0.00 0.00 0.00 100 1013.0
20260902082858 80 354 0.0 3.0 0.00 0.00 0.00 100 1013.0
20260902082801 80 354 0.0 3.0 0.00 0.00 0.00 100 1013.0
20260902082659 80 354 0.0 3.0 0.00 0.00 0.00 100 1013.0
20260902082559 80 354 0.0 3.0 0.00 0.00 0.00 100 1013.1
20260902082458 80 354 0.0 3.0 0.00 0.00 0.00 100 1013.1
20260902082401 80 354 0.0 1.0 0.00 0.00 0.00 100 1013.1
20260902082201 80 354 0.0 1.0 0.00 0.00 0.00 100 1013.1
20260902082058 80 354 1.0 1.0 0.00 0.00 0.00 100 1013.2
20260902081858 80 354 0.0 1.0 0.00 0.00 0.00 100 1013.1
20260902081758 80 354 0.0 1.0 0.00 0.00 0.00 1 1013.1
20260902081658 80 354 0.0 1.0 0.00 0.00 0.00 1 1013.1
20260902081558 80 354 0.0 1.0 0.00 0.00 0.00 1 1013.1
20260902081500 80 354 0.0 1.0 0.00 0.00 0.00 1 1013.1
20260902081400 80 354 0.0 1.0 0.00 0.00 0.00 2 1013.1
20260902081158 80 354 0.0 1.0 0.00 0.00 0.00 2 1013.1
20260902081059 80 354 0.0 1.0 0.00 0.00 0.00 3 1013.1
20260902081002 80 354 0.0 1.0 0.00 0.00 0.00 3 1013.1
20260902080858 80 354 0.0 1.0 0.00 0.00 0.00 3 1013.0
20260902080801 80 354 0.0 1.0 0.00 0.00 0.00 3 1013.1
20260902080700 80 354 0.0 1.0 0.00 0.00 0.00 3 1013.0
20260902080600 80 354 0.0 1.0 0.00 0.00 0.00 4 1013.1
20260902080458 80 354 0.0 0.0 0.00 0.00 0.00 4 1013.1
20260902080300 80 354 0.0 0.0 0.00 0.00 0.00 4 1013.1
20260902080200 80 354 0.0 2.0 0.00 0.00 0.00 4 1013.0
20260902080058 80 354 0.0 2.0 0.00 0.00 0.00 4 1013.1
20260902080006 80 354 0.0 2.0 0.00 0.00 0.00 4 1013.1
20260902075859 80 354 0.0 2.0 0.00 0.00 0.00 5 1013.0
20260902075757 80 354 0.0 2.0 0.00 0.00 0.00 5 1013.0
20260902075558 80 354 0.0 2.0 0.00 0.00 0.00 5 1013.0
20260902075459 80 354 0.0 2.0 0.00 0.00 0.00 5 1013.0
20260902075257 80 18 0.0 0.0 0.00 0.00 0.00 6 1013.0
20260902075157 80 18 0.0 0.0 0.00 0.00 0.00 6 1013.0
20260902075059 80 18 0.0 0.0 0.00 0.00 0.00 6 1013.1
20260902075000 80 18 0.0 0.0 0.00 0.00 0.00 6 1013.1
20260902074856 80 18 0.0 0.0 0.00 0.00 0.00 6 1013.1
20260902074757 80 18 0.0 1.0 0.00 0.00 0.00 6 1013.1
20260902074659 80 18 0.0 1.0 0.00 0.00 0.00 6 1013.1
20260902074457 80 18 0.0 1.0 0.00 0.00 0.00 7 1013.1
20260902074358 80 18 0.0 1.0 0.00 0.00 0.00 7 1013.1
20260902074259 80 18 0.0 1.0 0.00 0.00 0.00 7 1013.1
20260902074201 80 18 0.0 1.0 0.00 0.00 0.00 7 1013.1
20260902074057 80 18 0.0 1.0 0.00 0.00 0.00 7 1013.1
20260902073959 80 18 0.0 1.0 0.00 0.00 0.00 7 1013.0
20260902073856 80 18 0.0 2.0 0.00 0.00 0.00 7 1013.1
20260902073800 80 18 0.0 2.0 0.00 0.00 0.00 7 1013.1
20260902073559 80 18 0.0 2.0 0.00 0.00 0.00 7 1013.2
20260902073459 80 18 0.0 2.0 0.00 0.00 0.00 7 1013.1
20260902073359 80 18 0.0 2.0 0.00 0.00 0.00 7 1013.2
20260902073256 80 18 0.0 2.0 0.00 0.00 0.00 7 1013.2
20260902073157 80 18 0.0 2.0 0.00 0.00 0.00 7 1013.2
20260902073058 80 18 0.0 2.0 0.00 0.00 0.00 7 1013.2
20260902072857 80 18 0.0 2.0 0.00 0.00 0.00 8 1013.2
20260902072758 80 18 0.0 2.0 0.00 0.00 0.00 8 1013.2
20260902072659 80 18 0.0 2.0 0.00 0.00 0.00 8 1013.2
20260902072559 81 18 0.0 2.0 0.00 0.00 0.00 8 1013.3
20260902072457 81 18 0.0 2.0 0.00 0.00 0.00 7 1013.2
20260902072358 81 18 0.0 2.0 0.00 0.00 0.00 7 1013.2
20260902072259 81 18 0.0 2.0 0.00 0.00 0.00 7 1013.2
20260902072159 81 18 0.0 2.0 0.00 0.00 0.00 8 1013.3
20260902072057 81 18 1.0 1.0 0.00 0.00 0.00 9 1013.3
20260902071858 81 18 0.0 2.0 0.00 0.00 0.00 9 1013.2
20260902071759 81 18 0.0 2.0 0.00 0.00 0.00 9 1013.2
20260902071557 81 18 0.0 2.0 0.00 0.00 0.00 10 1013.3
20260902071457 81 18 0.0 3.0 0.00 0.00 0.00 9 1013.2
20260902071359 81 18 0.0 3.0 0.00 0.00 0.00 9 1013.2
20260902071259 81 18 0.0 3.0 0.00 0.00 0.00 9 1013.2
20260902071157 81 18 0.0 3.0 0.00 0.00 0.00 9 1013.2
20260902071059 81 18 0.0 3.0 0.00 0.00 0.00 9 1013.2
20260902070859 81 18 0.0 3.0 0.00 0.00 0.00 9 1013.2
20260902070800 81 18 0.0 3.0 0.00 0.00 0.00 9 1013.2
20260902070657 81 18 0.0 3.0 0.00 0.00 0.00 9 1013.1
20260902070559 81 18 1.0 3.0 0.00 0.00 0.00 10 1013.2
20260902070357 81 18 0.0 3.0 0.00 0.00 0.00 9 1013.2
20260902070259 81 18 2.0 3.0 0.00 0.00 0.00 10 1013.2
20260902070159 81 18 0.0 2.0 0.00 0.00 0.00 11 1013.1
20260902070059 81 18 0.0 2.0 0.00 0.00 0.00 11 1013.2
20260902070007 81 18 0.0 2.0 0.00 0.00 0.00 11 1013.2
20260902065858 81 18 0.0 2.0 0.00 0.00 0.00 11 1013.2
20260902065800 81 18 0.0 2.0 0.00 0.00 0.00 11 1013.2
20260902065700 81 18 1.0 2.0 0.00 0.00 0.00 11 1013.2
20260902065558 81 19 1.0 1.0 0.00 0.00 0.00 12 1013.1
20260902065458 81 19 0.0 1.0 0.00 0.00 0.00 12 1013.1
20260902065358 81 19 0.0 1.0 0.00 0.00 0.00 12 1013.1
20260902065259 81 19 0.0 1.0 0.00 0.00 0.00 12 1013.1
20260902065200 81 19 0.0 1.0 0.00 0.00 0.00 14 1013.1
20260902065058 81 19 0.0 1.0 0.00 0.00 0.00 14 1013.0
20260902064900 81 19 0.0 2.0 0.00 0.00 0.00 14 1013.0
20260902064800 81 19 1.0 2.0 0.00 0.00 0.00 15 1013.0
20260902064658 81 19 0.0 2.0 0.00 0.00 0.00 15 1013.0
20260902064558 81 19 0.0 2.0 0.00 0.00 0.00 15 1013.0
20260902064500 81 19 0.0 2.0 0.00 0.00 0.00 14 1013.0
20260902064400 81 19 0.0 2.0 0.00 0.00 0.00 14 1013.0
20260902064258 81 19 0.0 2.0 0.00 0.00 0.00 14 1013.0
20260902064159 81 19 1.0 1.0 0.00 0.00 0.00 16 1013.0
20260902064100 81 19 1.0 1.0 0.00 0.00 0.00 16 1013.0
20260902063857 81 19 0.0 1.0 0.00 0.00 0.00 16 1013.0
20260902063659 81 19 0.0 1.0 0.00 0.00 0.00 18 1013.0
20260902063600 81 18 0.0 1.0 0.00 0.00 0.00 18 1013.0
20260902063500 81 18 0.0 1.0 0.00 0.00 0.00 18 1013.0
20260902063358 81 18 0.0 1.0 0.00 0.00 0.00 18 1013.0
20260902063300 81 18 0.0 1.0 0.00 0.00 0.00 18 1013.0
20260902063200 81 18 0.0 1.0 0.00 0.00 0.00 18 1013.0
20260902063058 81 18 0.0 1.0 0.00 0.00 0.00 18 1013.0
20260902063000 81 18 0.0 1.0 0.00 0.00 0.00 18 1013.0
20260902062859 81 18 0.0 1.0 0.00 0.00 0.00 18 1013.0
20260902062800 81 18 0.0 2.0 0.00 0.00 0.00 18 1013.0
20260902062658 81 18 0.0 2.0 0.00 0.00 0.00 19 1013.0
20260902062558 81 18 0.0 2.0 0.00 0.00 0.00 18 1013.0
20260902062458 81 18 0.0 2.0 0.00 0.00 0.00 19 1013.0
20260902062400 81 18 0.0 2.0 0.00 0.00 0.00 19 1013.0
20260902062300 81 18 0.0 2.0 0.00 0.00 0.00 19 1013.0
20260902062158 81 18 1.0 2.0 0.00 0.00 0.00 19 1013.0
20260902062002 81 18 0.0 1.0 0.00 0.00 0.00 19 1013.0
20260902061859 81 18 0.0 1.0 0.00 0.00 0.00 20 1013.0
20260902061758 81 18 0.0 1.0 0.00 0.00 0.00 19 1013.0
20260902061658 81 18 0.0 1.0 0.00 0.00 0.00 19 1013.0
20260902061601 81 18 1.0 1.0 0.00 0.00 0.00 20 1013.0
20260902061500 81 19 0.0 1.0 0.00 0.00 0.00 20 1013.1
20260902061358 81 19 0.0 3.0 0.00 0.00 0.00 21 1013.0
20260902061259 81 19 0.0 3.0 0.00 0.00 0.00 21 1013.0
20260902061200 81 19 0.0 3.0 0.00 0.00 0.00 21 1013.0
20260902061100 81 19 0.0 3.0 0.00 0.00 0.00 22 1013.0
20260902061000 81 19 0.0 3.0 0.00 0.00 0.00 23 1013.1
20260902060858 81 19 0.0 3.0 0.00 0.00 0.00 22 1013.1
20260902060800 81 19 0.0 3.0 0.00 0.00 0.00 22 1013.1
20260902060657 81 19 0.0 3.0 0.00 0.00 0.00 23 1013.1
20260902060458 81 27 0.0 3.0 0.00 0.00 0.00 24 1013.1
20260902060400 81 23 0.0 0.0 0.00 0.00 0.00 24 1013.1
20260902060300 81 23 0.0 0.0 0.00 0.00 0.00 25 1013.2
20260902060158 81 23 0.0 0.0 0.00 0.00 0.00 25 1013.1
20260902060058 81 23 0.0 0.0 0.00 0.00 0.00 25 1013.1
20260902060004 81 23 0.0 0.0 0.00 0.00 0.00 25 1013.1
20260902055900 81 23 0.0 0.0 0.00 0.00 0.00 27 1013.2
20260902055759 81 23 0.0 0.0 0.00 0.00 0.00 28 1013.2
20260902055658 81 23 0.0 0.0 0.00 0.00 0.00 28 1013.2
20260902055559 81 23 0.0 0.0 0.00 0.00 0.00 30 1013.2
20260902055458 81 23 0.0 0.0 0.00 0.00 0.00 31 1013.2
20260902055400 81 23 0.0 0.0 0.00 0.00 0.00 31 1013.3
20260902055258 81 23 0.0 0.0 0.00 0.00 0.00 32 1013.2
20260902055158 81 23 0.0 0.0 0.00 0.00 0.00 33 1013.2
20260902055001 81 23 0.0 0.0 0.00 0.00 0.00 34 1013.1
20260902054859 81 23 0.0 0.0 0.00 0.00 0.00 33 1013.1
20260902054758 81 23 0.0 0.0 0.00 0.00 0.00 35 1013.1
20260902054659 81 23 0.0 0.0 0.00 0.00 0.00 35 1013.1
20260902054458 81 23 0.0 0.0 0.00 0.00 0.00 38 1013.1
20260902054359 81 23 0.0 0.0 0.00 0.00 0.00 38 1013.1
20260902054200 81 23 0.0 0.0 0.00 0.00 0.00 38 1013.1
20260902054058 81 23 0.0 0.0 0.00 0.00 0.00 39 1013.1
20260902054000 81 23 0.0 0.0 0.00 0.00 0.00 40 1013.1
20260902053858 81 23 0.0 0.0 0.00 0.00 0.00 39 1013.1
20260902053658 81 23 0.0 0.0 0.00 0.00 0.00 42 1013.2
20260902053600 81 23 0.0 0.0 0.00 0.00 0.00 43 1013.2
20260902053500 81 23 0.0 0.0 0.00 0.00 0.00 43 1013.2
20260902053301 80 23 0.0 0.0 0.00 0.00 0.00 44 1013.2
20260902053158 80 23 0.0 0.0 0.00 0.00 0.00 44 1013.3
20260902053057 80 23 0.0 0.0 0.00 0.00 0.00 45 1013.3
20260902053002 80 23 0.0 0.0 0.00 0.00 0.00 45 1013.3
20260902052859 80 23 0.0 0.0 0.00 0.00 0.00 45 1013.3
20260902052658 80 23 0.0 0.0 0.00 0.00 0.00 46 1013.3
20260902052500 80 23 0.0 0.0 0.00 0.00 0.00 46 1013.3
20260902052400 80 23 0.0 0.0 0.00 0.00 0.00 46 1013.3
20260902052300 80 23 0.0 0.0 0.00 0.00 0.00 47 1013.3
20260902052159 80 23 0.0 0.0 0.00 0.00 0.00 48 1013.2
20260902052059 80 23 0.0 0.0 0.00 0.00 0.00 48 1013.2
20260902051859 80 23 0.0 0.0 0.00 0.00 0.00 48 1013.2
20260902051800 80 23 0.0 0.0 0.00 0.00 0.00 48 1013.2
20260902051659 80 23 0.0 0.0 0.00 0.00 0.00 48 1013.2
20260902051600 80 23 0.0 0.0 0.00 0.00 0.00 49 1013.2
20260902051458 80 23 0.0 0.0 0.00 0.00 0.00 49 1013.2
20260902051259 80 23 0.0 0.0 0.00 0.00 0.00 50 1013.2
20260902051200 80 23 0.0 0.0 0.00 0.00 0.00 50 1013.2
20260902051059 80 23 0.0 0.0 0.00 0.00 0.00 50 1013.2
20260902051000 80 23 0.0 0.0 0.00 0.00 0.00 50 1013.2
20260902050800 80 23 0.0 0.0 0.00 0.00 0.00 50 1013.2
20260902050459 80 23 0.0 0.0 0.00 0.00 0.00 50 1013.3
20260902050400 80 23 0.0 0.0 0.00 0.00 0.00 50 1013.3
20260902050258 80 23 0.0 0.0 0.00 0.00 0.00 50 1013.3
20260902050008 80 23 0.0 0.0 0.00 0.00 0.00 50 1013.2
20260902045900 80 23 0.0 0.0 0.00 0.00 0.00 50 1013.3
20260902045601 80 23 0.0 0.0 0.00 0.00 0.00 50 1013.3
20260902045500 80 23 0.0 0.0 0.00 0.00 0.00 51 1013.4
20260902045258 80 23 0.0 0.0 0.00 0.00 0.00 51 1013.4
20260902045100 80 23 0.0 0.0 0.00 0.00 0.00 51 1013.4
20260902045001 81 23 0.0 0.0 0.00 0.00 0.00 51 1013.4
20260902044900 81 23 0.0 0.0 0.00 0.00 0.00 51 1013.4
20260902044800 81 23 0.0 0.0 0.00 0.00 0.00 51 1013.4
20260902044659 81 23 0.0 0.0 0.00 0.00 0.00 51 1013.4
20260902044559 81 23 0.0 0.0 0.00 0.00 0.00 51 1013.4
20260902044500 81 23 0.0 0.0 0.00 0.00 0.00 51 1013.4
20260902044259 81 23 0.0 0.0 0.00 0.00 0.00 51 1013.4
20260902044158 81 23 0.0 0.0 0.00 0.00 0.00 51 1013.4
20260902044100 81 23 0.0 0.0 0.00 0.00 0.00 51 1013.4
20260902044001 81 23 0.0 0.0 0.00 0.00 0.00 51 1013.3
20260902043859 81 23 0.0 0.0 0.00 0.00 0.00 51 1013.3
20260902043800 81 23 0.0 0.0 0.00 0.00 0.00 50 1013.3
20260902043659 81 23 0.0 0.0 0.00 0.00 0.00 50 1013.3
20260902043600 81 23 0.0 0.0 0.00 0.00 0.00 50 1013.3
20260902043459 81 23 0.0 0.0 0.00 0.00 0.00 51 1013.3
20260902043359 81 23 0.0 0.0 0.00 0.00 0.00 51 1013.3
20260902043300 81 23 0.0 0.0 0.00 0.00 0.00 50 1013.2
20260902043200 81 23 0.0 0.0 0.00 0.00 0.00 50 1013.3
20260902043058 81 23 0.0 0.0 0.00 0.00 0.00 50 1013.3
20260902043001 81 23 0.0 0.0 0.00 0.00 0.00 50 1013.2
20260902042859 81 23 0.0 0.0 0.00 0.00 0.00 50 1013.2
20260902042758 81 23 0.0 0.0 0.00 0.00 0.00 50 1013.2
20260902042559 81 23 0.0 0.0 0.00 0.00 0.00 50 1013.2
20260902042459 81 23 0.0 0.0 0.00 0.00 0.00 50 1013.2
20260902042400 81 23 0.0 0.0 0.00 0.00 0.00 50 1013.2
20260902042258 81 23 0.0 0.0 0.00 0.00 0.00 50 1013.2
20260902042059 81 23 0.0 0.0 0.00 0.00 0.00 50 1013.2
20260902041859 81 23 0.0 0.0 0.00 0.00 0.00 50 1013.2
20260902041800 81 23 0.0 0.0 0.00 0.00 0.00 50 1013.3
20260902041700 81 23 0.0 0.0 0.00 0.00 0.00 50 1013.3
20260902041558 81 23 0.0 0.0 0.00 0.00 0.00 50 1013.3
20260902041500 81 23 0.0 0.0 0.00 0.00 0.00 50 1013.3
20260902041358 81 23 0.0 0.0 0.00 0.00 0.00 50 1013.2
20260902041300 81 23 0.0 0.0 0.00 0.00 0.00 50 1013.3
20260902041200 81 23 0.0 0.0 0.00 0.00 0.00 50 1013.2
20260902041057 81 23 0.0 0.0 0.00 0.00 0.00 50 1013.3
20260902040959 81 23 0.0 0.0 0.00 0.00 0.00 50 1013.3
20260902040900 81 23 0.0 0.0 0.00 0.00 0.00 50 1013.3
20260902040800 81 23 0.0 0.0 0.00 0.00 0.00 50 1013.3
20260902040703 81 23 0.0 0.0 0.00 0.00 0.00 50 1013.3
20260902040600 81 23 0.0 0.0 0.00 0.00 0.00 50 1013.3
20260902040500 81 23 0.0 0.0 0.00 0.00 0.00 51 1013.3
20260902040358 81 23 0.0 0.0 0.00 0.00 0.00 51 1013.3
20260902040258 81 23 0.0 0.0 0.00 0.00 0.00 51 1013.3
20260902040200 81 23 0.0 0.0 0.00 0.00 0.00 51 1013.3
20260902040058 81 23 0.0 0.0 0.00 0.00 0.00 51 1013.3
20260902040005 81 23 0.0 0.0 0.00 0.00 0.00 51 1013.3
20260902035659 81 23 0.0 0.0 0.00 0.00 0.00 51 1013.4
20260902035602 81 23 0.0 0.0 0.00 0.00 0.00 51 1013.4
20260902035502 81 23 0.0 0.0 0.00 0.00 0.00 51 1013.4
20260902035359 81 23 0.0 0.0 0.00 0.00 0.00 51 1013.4
20260902035259 81 23 0.0 0.0 0.00 0.00 0.00 51 1013.4
20260902035202 81 23 0.0 0.0 0.00 0.00 0.00 52 1013.4
20260902035058 81 23 0.0 0.0 0.00 0.00 0.00 52 1013.5
20260902035000 81 23 0.0 0.0 0.00 0.00 0.00 52 1013.5
20260902034659 81 23 0.0 0.0 0.00 0.00 0.00 52 1013.6
20260902034559 81 23 0.0 0.0 0.00 0.00 0.00 52 1013.5
20260902034500 81 23 0.0 0.0 0.00 0.00 0.00 53 1013.6
20260902034302 81 23 0.0 0.0 0.00 0.00 0.00 53 1013.6
20260902034059 81 23 0.0 0.0 0.00 0.00 0.00 53 1013.6
20260902034005 81 23 0.0 0.0 0.00 0.00 0.00 53 1013.6
20260902033905 81 23 0.0 0.0 0.00 0.00 0.00 54 1013.6
20260902033800 81 23 0.0 0.0 0.00 0.00 0.00 54 1013.6
20260902033659 81 23 0.0 0.0 0.00 0.00 0.00 54 1013.6
20260902033558 81 23 0.0 0.0 0.00 0.00 0.00 54 1013.6
20260902033502 81 23 0.0 0.0 0.00 0.00 0.00 54 1013.6
20260902033359 81 23 0.0 0.0 0.00 0.00 0.00 54 1013.5
20260902033200 81 23 0.0 0.0 0.00 0.00 0.00 53 1013.5
20260902033101 81 23 0.0 0.0 0.00 0.00 0.00 53 1013.5
20260902033000 81 23 0.0 0.0 0.00 0.00 0.00 53 1013.5
20260902032859 81 23 0.0 0.0 0.00 0.00 0.00 53 1013.5
20260902032802 81 23 0.0 0.0 0.00 0.00 0.00 54 1013.5
20260902032702 81 23 0.0 0.0 0.00 0.00 0.00 54 1013.5
20260902032559 81 23 0.0 0.0 0.00 0.00 0.00 54 1013.5
20260902032459 81 23 0.0 0.0 0.00 0.00 0.00 54 1013.5
20260902032359 81 23 0.0 0.0 0.00 0.00 0.00 54 1013.5
20260902031901 81 23 0.0 0.0 0.00 0.00 0.00 55 1013.4
20260902031759 81 23 0.0 0.0 0.00 0.00 0.00 55 1013.4
20260902031659 81 23 0.0 0.0 0.00 0.00 0.00 55 1013.4
20260902031600 81 23 0.0 0.0 0.00 0.00 0.00 56 1013.4
20260902031502 81 23 0.0 0.0 0.00 0.00 0.00 55 1013.4
20260902031402 81 23 0.0 0.0 0.00 0.00 0.00 56 1013.3
20260902031159 81 23 0.0 0.0 0.00 0.00 0.00 56 1013.3
20260902031102 81 23 0.0 0.0 0.00 0.00 0.00 56 1013.3
20260902031003 81 23 0.0 0.0 0.00 0.00 0.00 56 1013.3
20260902030858 81 23 0.0 0.0 0.00 0.00 0.00 56 1013.2
20260902030759 81 23 0.0 0.0 0.00 0.00 0.00 56 1013.2
20260902030701 81 23 0.0 0.0 0.00 0.00 0.00 56 1013.2
20260902030602 81 23 0.0 0.0 0.00 0.00 0.00 56 1013.1
20260902030359 81 23 0.0 0.0 0.00 0.00 0.00 56 1013.2
20260902030302 81 23 0.0 0.0 0.00 0.00 0.00 57 1013.2
20260902030058 81 23 0.0 0.0 0.00 0.00 0.00 56 1013.0
20260902030006 81 23 0.0 0.0 0.00 0.00 0.00 57 1013.0
20260902025857 81 23 0.0 0.0 0.00 0.00 0.00 57 1013.0
20260902025758 81 23 0.0 0.0 0.00 0.00 0.00 57 1013.0
20260902025657 82 23 0.0 0.0 0.00 0.00 0.00 56 1013.0
20260902025500 82 23 0.0 0.0 0.00 0.00 0.00 57 1013.0
20260902025400 82 23 0.0 0.0 0.00 0.00 0.00 57 1012.9
20260902025158 82 23 0.0 0.0 0.00 0.00 0.00 57 1012.9
20260902024959 82 23 0.0 0.0 0.00 0.00 0.00 57 1012.9
20260902024857 82 23 0.0 0.0 0.00 0.00 0.00 57 1012.9
20260902024700 82 23 0.0 0.0 0.00 0.00 0.00 58 1012.9
20260902024458 82 23 0.0 0.0 0.00 0.00 0.00 57 1012.8
20260902024359 82 23 0.0 0.0 0.00 0.00 0.00 57 1012.8
20260902024259 82 23 0.0 0.0 0.00 0.00 0.00 57 1012.8
20260902024200 82 23 0.0 0.0 0.00 0.00 0.00 57 1012.8
20260902024058 82 23 0.0 0.0 0.00 0.00 0.00 57 1012.8
20260902023959 82 23 0.0 0.0 0.00 0.00 0.00 58 1012.8
20260902023859 82 23 0.0 0.0 0.00 0.00 0.00 58 1012.8
20260902023800 82 23 0.0 0.0 0.00 0.00 0.00 58 1012.8
20260902023658 82 23 0.0 0.0 0.00 0.00 0.00 58 1012.8
20260902023558 82 23 0.0 0.0 0.00 0.00 0.00 58 1012.7
20260902023400 82 23 0.0 0.0 0.00 0.00 0.00 58 1012.7
20260902023257 82 23 0.0 0.0 0.00 0.00 0.00 58 1012.7
20260902023158 82 23 0.0 0.0 0.00 0.00 0.00 59 1012.6
20260902023059 82 23 0.0 0.0 0.00 0.00 0.00 59 1012.6
20260902023001 82 23 0.0 0.0 0.00 0.00 0.00 59 1012.6
20260902022758 82 23 0.0 0.0 0.00 0.00 0.00 59 1012.6
20260902022700 82 23 0.0 0.0 0.00 0.00 0.00 59 1012.6
20260902022600 82 23 0.0 0.0 0.00 0.00 0.00 59 1012.5
20260902022458 82 23 0.0 0.0 0.00 0.00 0.00 59 1012.5
20260902022358 82 23 0.0 0.0 0.00 0.00 0.00 59 1012.5
20260902022201 82 23 0.0 0.0 0.00 0.00 0.00 58 1012.5
20260902022058 82 23 0.0 0.0 0.00 0.00 0.00 58 1012.5
20260902022000 82 23 0.0 0.0 0.00 0.00 0.00 58 1012.6
20260902021858 82 23 0.0 0.0 0.00 0.00 0.00 58 1012.5
20260902021800 82 23 0.0 0.0 0.00 0.00 0.00 59 1012.6
20260902021659 82 23 0.0 0.0 0.00 0.00 0.00 59 1012.6
20260902021559 82 23 0.0 0.0 0.00 0.00 0.00 59 1012.5
20260902021458 82 23 0.0 0.0 0.00 0.00 0.00 60 1012.6
20260902021400 82 23 0.0 0.0 0.00 0.00 0.00 60 1012.6
20260902021257 82 23 0.0 0.0 0.00 0.00 0.00 60 1012.6
20260902021158 82 23 0.0 0.0 0.00 0.00 0.00 60 1012.6
20260902021058 83 23 0.0 0.0 0.00 0.00 0.00 60 1012.6
20260902021001 83 23 0.0 0.0 0.00 0.00 0.00 60 1012.6
20260902020859 83 23 0.0 0.0 0.00 0.00 0.00 60 1012.6
20260902020758 83 23 0.0 0.0 0.00 0.00 0.00 60 1012.5
20260902020659 83 23 0.0 0.0 0.00 0.00 0.00 60 1012.5
20260902020600 83 23 0.0 0.0 0.00 0.00 0.00 60 1012.5
20260902020500 83 23 0.0 0.0 0.00 0.00 0.00 60 1012.5
20260902020358 83 23 0.0 0.0 0.00 0.00 0.00 60 1012.4
20260902020258 83 23 0.0 0.0 0.00 0.00 0.00 60 1012.4
20260902020200 83 23 0.0 0.0 0.00 0.00 0.00 60 1012.4
20260902020100 83 23 0.0 0.0 0.00 0.00 0.00 60 1012.3
20260902015959 83 23 0.0 0.0 0.00 0.00 0.00 60 1012.3
20260902015800 83 23 0.0 0.0 0.00 0.00 0.00 60 1012.3
20260902015558 83 23 0.0 0.0 0.00 0.00 0.00 60 1012.2
20260902015458 83 23 0.0 0.0 0.00 0.00 0.00 60 1012.2
20260902015400 83 23 0.0 0.0 0.00 0.00 0.00 60 1012.2
20260902015300 83 23 0.0 0.0 0.00 0.00 0.00 60 1012.2
20260902015058 83 23 0.0 0.0 0.00 0.00 0.00 60 1012.2